Baseball 板


LINE

客队: 德 州 游 骑 兵 2026 季赛—本季打击成绩—AVG/OBP/OPS --- ↗HR↖ 1. Brandon Nimmo (L) RF .333 / .414 / .884 1HR 2. Ezequiel Duran (R) LF .286 / .286 / .762 1HR  3. Corey Seager (L) SS .234 / .321 / .811  4HR 4. Jake Burger (R) 1B .250 / .278 / .720  2HR 5. Joc Pederson (L) DH .154 / .233 / .541  1HR 6. Evan Carter (L) CF .237 / .341 / .736  1HR 7. Kyle Higashioka (R) C .357 / .438 / 1.009  1HR 8. Josh Smith (L) 2B .154 / .250 / .404 9. Josh Jung (R) 3B .200 / .243 / .443 先发投手 : (R) Jack Leiter 1W-0L ERA 2.45 WHIP 1.00 主队: 洛 杉 矶 道 奇 2026 季赛—本季打击成绩—AVG/OBP/OPS --- ↗HR↖ 1. 大 谷 翔 平 (L) DH .265 / .406 / .876 3HR 2. Kyle Tucker (L) RF .271 / .379 / .733   1HR  3. Will Smith (R) C .262 / .326 / .731 2HR 4. Freddie Freeman (L) 1B .255 / .305 / .796 3HR 5. Max Muncy (L) 3B .286 / .375 / .946 4HR 6. Teoscar Hernandez (R) LF .289 / .313 / .757 2HR 7. Andy Pages (R) CF .449 / .481 / 1.256 4HR 9. Alex Freeland (S) 2B .265 / .324 / .736   1HR 9. 金 慧 成 (L) SS .375 / .455 / .955      先发投手 : (R) Emmet Sheehan 1W-0L ERA 8.00 WHIP 1.89 游骑兵先发打线图片版: https://pbs.twimg.com/media/HFqAtdtXgAAIaj4.jpg
道 奇先发打线图片版: https://pbs.twimg.com/media/HFp0jJGakAAXqFV.jpg
即时气温预报 : 华氏 64 F 晴时多云 降雨机率13% 风速 9 mph 打者顺风 ╭─────────────── 转播平台 ──────────────╮ │华视主频CTS(MOD与网路版4gtv无播出)      │ │东森洋片台      │ │纬来体育台 │ │爱尔达ELTA体育  2 台 (MOD CH201)      │ │MLB.TV ( 需 付 费 ) │ │Hami Video  https://hamivideo.hinet.net (请点选电视运动馆) │ │ │ │台湾时间早上09:10开打 │ ╰────────────────────────────────────╯ 观 战 花 絮 : 1. 最不喜欢ABS挑战 https://pbs.twimg.com/media/HFfyi5xa0AAfEHx.jpg 不加昨天团队挑战为12次
游骑兵目前团队累计13次挑战ABS 全MLB最少 捕手Jansen+东冈凯尔合计仅3次挑战 主要原因是投手群好球带比例极高 目前49.1%仅比水手(49.6)低 投手群制造挥空率 30.5% 全MLB第一 2. 最强击球 https://pbs.twimg.com/media/HFfyk5nbQAAKXKl.jpg
游骑兵团队强劲击球率47.1% (击球初速至少达95MPH)全MLB第一 3. 棒球世家 游骑兵先发> Leiter 前马林鱼+大都会左投Al之子 绿帽Mark Leiter Jr.的堂弟(Mark Leiter是他大伯) 开季表现不错 两场先发合计11局飙17K仅2BB 三振保送比 = 8.50 (去年仅 2.21) 前一场对红人 5局85球失1分送出8K+1BB 无关胜败 招牌武器为游走在好球带下缘的圈指变速 生涯首度对上道奇 4. 有火力挺就不怕 道奇先发> Sheehan 前一场对国民首局就失3分 後面道奇5分大局支援马上越投越稳 最终5.2局失4分 送出2K+3BB 获得本季首胜 生涯仅对过游骑兵一次 在2023年 先发撑了3.2局失8分吞败 生涯与游骑兵打线对战 vs Duran 3-2 1RBI 0K vs Pederson 4-0 1K vs Smith 1-0 0K vs Jung 3-1 1RBI 1K 5. 今天我生日 https://pbs.twimg.com/media/HFpB1DJakAIC3ig.jpg
咆啸至尊天天V 美国时间是他卅岁生日 6. 今日主题活动-----向老师致敬之夜 开球嘉宾: LA在地教师 https://img.mlbstatic.com/mlb-images/image/upload/mlb/icww9hcl82tjhzyirydo.jpg
购买相关套票的球迷将可获得一件道奇logo特制圆领长袖运动衫 -- MLB2026 马急来挑战! 你怎能不热爱棒球? It's SHO time !!! https://youtu.be/6Nbq65klFmM
https://youtu.be/5gVUacRMNPI Rangers Opening 2026
-- ※ 文章网址: https://webptt.com/cn.aspx?n=bbs/Baseball/M.1775956042.A.4C5.html
1F:推 hanksadder: 今天是纬来体育转播哩~ 04/12 09:08
感谢告知
2F:推 KWBilly: 头 04/12 09:08
3F:推 force5566: 还以为朗希先发 04/12 09:09
4F:推 hi750403: 诗涵和打线加油 04/12 09:09
5F:推 SHOTN17: SSK明天吧 04/12 09:09
6F:推 Franc1224: 今天换谁三响? 04/12 09:10
7F:推 xin114242: 原来今天是诗涵 04/12 09:10
8F:推 Tr3vyy: ERA 8 道奇药丸 04/12 09:10
9F:→ Franc1224: 我以为是蜗牛? 04/12 09:10
10F:→ xin114242: 就看今天道奇火力能不能救救诗涵了 04/12 09:11
11F:推 hi750403: 喔不 04/12 09:11
12F:推 SHOTN17: 出去啦 04/12 09:11
13F:→ hi750403: 干又来了 04/12 09:11
14F:→ iyvx7c: 直接炸… 04/12 09:11
15F:推 Ferrari360: QQ 04/12 09:11
16F:推 teata: 立刻炸 04/12 09:11
17F:嘘 jimmily: ? 04/12 09:11
18F:推 nolimits: 炸裂 04/12 09:11
19F:→ xin114242: 马上被开炸 04/12 09:11
20F:→ Tr3vyy: 蛤 炸 04/12 09:11
21F:推 jason0829: H 04/12 09:11
22F:推 hanksadder: 炸 04/12 09:11
23F:推 cat110211: 炸 04/12 09:11
24F:→ hi750403: 条子真的好厉害 04/12 09:11
25F:推 yangtsur: 啊? 就刚好出去了 04/12 09:11
26F:推 babuza: HR 04/12 09:11
27F:推 shuyuhuang: 夭寿喔 04/12 09:11
28F:推 sergiorossi: 惨 04/12 09:11
29F:推 KWBilly: 炸 04/12 09:11
30F:→ maimai2063: 条子开炸 04/12 09:11
31F:推 pett: 诗涵发球机一台 04/12 09:11
32F:→ iyvx7c: 肉包 真甜… 04/12 09:11
33F:推 a026537: 蛤 04/12 09:11
34F:推 dpmdp12321: 强 04/12 09:11
35F:→ asd45654: 还想说今天球速有恢复 结果就飞出去了 04/12 09:11
36F:→ hi750403: 诗涵完单了 04/12 09:11
37F:推 zxcghjko: 炸 04/12 09:11
38F:推 beastkobe: 甜到不行,丢搞 04/12 09:11
39F:推 jimmich19: 开球嘉宾? 04/12 09:12
40F:→ SHOTN17: 太甜啦 04/12 09:12
41F:推 blue0719: 哈哈哈哈哈哈哈哈哈哈 04/12 09:12
42F:推 timnice5566: 蛤 诗涵被炸了 04/12 09:12
43F:→ galleon2000: 喂球逆? 04/12 09:12
44F:推 ele55055: 跳起来有机会 04/12 09:12
45F:推 KuoMosquito: 水啦 尼莫 04/12 09:12
46F:推 b07130602: 尼莫去哪儿 04/12 09:12
47F:推 force5566: 马上被尻 04/12 09:12
48F:→ hi750403: 条子两天状况真好 04/12 09:12
49F:推 nigatsuki: 太快了吧 很多人大概连电视都还没打开 04/12 09:12
50F:→ pett: 从季後赛转中继烂到现在 04/12 09:12
51F:推 fbi258ghost: 直接就出去了 04/12 09:12
52F:推 alain: 惨 一开赛就要发动逆境灵气 04/12 09:13
53F:→ SHOTN17: 今天速度有回来 但刚位置太甜了 04/12 09:13
54F:→ hi750403: ,,k 04/12 09:13
55F:→ SHOTN17: 97 HFB 04/12 09:13
56F:→ zxcghjko: K 04/12 09:13
57F:推 luca714: 97 速度真的拉起来了 04/12 09:13
58F:→ hi750403: 希望继续 04/12 09:13
59F:推 crayon1988: K 04/12 09:13
60F:推 don323: 快 04/12 09:13
61F:推 nigatsuki: 雪哥皱眉 04/12 09:14
62F:→ hi750403: kk水喔 04/12 09:14
63F:推 Ferrari360: K 04/12 09:14
64F:推 iyvx7c: I 04/12 09:14
65F:推 daydreamer13: k 04/12 09:14
66F:→ iyvx7c: K 04/12 09:14
67F:→ SHOTN17: 有回稳哦! 04/12 09:14
68F:推 xin114242: 稳回来了吗 04/12 09:14
69F:→ nigatsuki: 被打醒了 04/12 09:14
70F:推 sergiorossi: 回稳 04/12 09:14
71F:→ hi750403: 除了那颗炸目前都还不错 04/12 09:14
72F:推 zxcghjko: K 04/12 09:14
73F:→ Ferrari360: 省 04/12 09:15
74F:→ hi750403: 打线可以上班了 04/12 09:15
75F:→ daydreamer13: 後面顺顺的 还行 04/12 09:15
76F:→ iyvx7c: 还行 就被猫到肉包 04/12 09:15
77F:→ xin114242: 开局就被炸 得认真了 04/12 09:15
78F:推 crayon1988: 省 04/12 09:15
79F:→ asd45654: 希望打线努力了 04/12 09:15
80F:→ hi750403: 打线拜托拜托 04/12 09:16
81F:→ asd45654: 投球内容其实比上一场好 04/12 09:16
82F:→ hi750403: 大谷加油阿别凉捏 04/12 09:17
83F:推 Ferrari360: 闪 04/12 09:17
84F:推 pirates223: 加油啊笑死 04/12 09:17
85F:推 deathslipkno: 大谷也来一发啊 04/12 09:17
86F:推 beastkobe: 今天是凉平还是翔平 04/12 09:17
87F:推 Uizmp: 又看 04/12 09:17
88F:推 jiaxie: 笑死红中不击 04/12 09:17
89F:→ pirates223: 红中不击 04/12 09:17
90F:推 heaven12: 大谷首打席炸裂 04/12 09:18
91F:推 zxcghjko: 红中不击 04/12 09:18
92F:→ Ferrari360: 炸 04/12 09:18
93F:推 Willdododo: 回敬一颗 04/12 09:18
94F:推 Franc1224: 红中肯定有鬼,不击 04/12 09:18
95F:推 SHOTN17: 777777 04/12 09:18
96F:推 jimmily: 轰 04/12 09:18
97F:→ hi750403: 喔喔全垒打 04/12 09:18
98F:推 fbi258ghost: 内角? 04/12 09:18
99F:推 babuza: HR 04/12 09:18
100F:推 xin114242: 回敬一颗 04/12 09:18
101F:推 codyDL: HR 04/12 09:18
102F:推 iyvx7c: 哇靠 醒了 复制贴上 04/12 09:18
103F:推 ben192726: 炸 04/12 09:18
104F:→ pirates223: 炸 04/12 09:18
105F:推 sooder: 可以77777 04/12 09:18
106F:推 JWalk77: 炸 04/12 09:18
107F:推 biosphere: 炸 04/12 09:18
108F:→ jiaxie: 笑死 炸裂啦! 04/12 09:18
109F:→ SHOTN17: 炸回去啦 04/12 09:18
110F:推 ycsheaven: 炸啦~~ 04/12 09:18
111F:→ Uizmp: 只会打框框外面的 04/12 09:18
112F:推 yangtsur: 炸! 04/12 09:18
113F:推 maimai2063: 炸回去XD 04/12 09:18
114F:推 pinkysecret: 水喔 04/12 09:18
115F:推 b258963147: 777777777777777777777 04/12 09:18
116F:推 Tr3vyy: 有啦 04/12 09:18
117F:推 yang826: 主场终於炸了 04/12 09:18
118F:推 ohyaehchu: 没人抢 04/12 09:18
119F:推 cool8418: 完全咬到 04/12 09:18
120F:推 eee60109: 88888 04/12 09:18
121F:推 SonnyGray: 跟得真好XD 04/12 09:18
122F:推 sergiorossi: 靠 超疼诗涵 04/12 09:18
123F:推 huangjyuan: 还你一支啦 04/12 09:18
124F:推 Lawschool: 没人发 04/12 09:18
125F:→ zxcghjko: 炸 04/12 09:18
126F:推 kiv9137: 回敬一发 04/12 09:18
127F:推 ZEONEX: 大谷第四!!!!? 04/12 09:18
128F:→ hi750403: 干爽了 04/12 09:18
129F:→ crayon1988: 只会打框外的 04/12 09:18
130F:→ ycsheaven: 框框外面的全垒打 04/12 09:18
131F:推 KWBilly: 大谷炸! 04/12 09:18
132F:推 angel1314: 炸 04/12 09:18
133F:→ deathslipkno: 好好笑 还真的一发 04/12 09:18
134F:推 orchidd: 大谷 04/12 09:18
135F:推 Jaguarsu: 炸 04/12 09:18
136F:推 lonely235711: 醒了 04/12 09:18
137F:推 cklovework: 水啦 04/12 09:18
138F:推 qwer007700: 笑死 04/12 09:18
139F:→ shifa: 这啥鬼 唐突一轰 04/12 09:18
140F:推 CavendishJr: 啊!!! 04/12 09:18
141F:推 nigatsuki: 还你啦啊啊啊啊啊啊 04/12 09:18
142F:→ asd45654: 爱诗涵打线 04/12 09:18
143F:推 disasterD: 笑死 04/12 09:18
144F:推 snoopy63: 轰啦 04/12 09:18
145F:→ crayon1988: 没人要抢 过气了 04/12 09:18
146F:推 ScotchWhisky: 轻浮一击 No.4 04/12 09:18
147F:→ babuza: 首打席都全垒打 04/12 09:18
148F:推 cat110211: 哇 04/12 09:18
149F:→ fbi258ghost: 跟的真好欸 04/12 09:18
150F:推 asd3613: 怎没炸裂文 04/12 09:18
151F:→ cklovework: 失投 04/12 09:18
152F:推 Getbackers: 一安可,下班了 04/12 09:18
153F:推 sharkmew: 回敬 04/12 09:18
154F:推 Darvish0831: 第一棒互轰 04/12 09:18
155F:推 frankie30432: 忽然就射了 04/12 09:18
156F:→ sergiorossi: 大家都还没睡醒是吗 04/12 09:18
157F:→ jiaxie: 气了,都回到休息区,没人抢 04/12 09:19
158F:推 shuyuhuang: 轰啦RRRR 04/12 09:19
159F:推 timnice5566: 剧本拿到一样的? 04/12 09:19
160F:推 oplk: 还你一发 04/12 09:19
161F:推 ils0104: 大谷爱诗涵 04/12 09:19
162F:→ yangtsur: 大谷: 诗涵别怕 学长罩你 04/12 09:19
163F:→ pirates223: 居然没有炸裂文 04/12 09:19
164F:→ nigatsuki: 那颗不是坏球吗 04/12 09:19
165F:推 nolimits: 游骑兵美美? 04/12 09:19
166F:推 sh9110553: 炸 真的没人抢笑死 04/12 09:19
167F:→ Uizmp: 红中不会打 04/12 09:19
168F:推 ssaic2006: 一上来就炸XD 04/12 09:19
169F:推 crayon56: 帅 04/12 09:19
170F:推 zealotlai274: 扯 04/12 09:19
171F:推 carlchang092: 没人抢 04/12 09:19
172F:→ huangjyuan: 有笑容了 04/12 09:19
173F:推 hpfan: 好鬼 04/12 09:19
174F:推 tonykingtwo: 没人抢 04/12 09:19
175F:→ iyvx7c: 失投就扛出去 MLB真可怕 04/12 09:19
176F:推 TonyGonsolin: 阿谷赞啦 04/12 09:19
177F:推 hatephubbing: 每人发? 04/12 09:19
178F:推 Pinata23: 真快 04/12 09:19
179F:→ KWBilly: 早知道不发Nimmo炸裂文,完全不能抢大谷的QQ 04/12 09:19
180F:推 rainie2357: 外面没人抢 04/12 09:19
181F:推 dylancdylanc: 回敬一发扳平 04/12 09:19
182F:推 Ferrari360: 没炸裂文?? 04/12 09:19
183F:→ SHOTN17: 真的很爱打内角 不管好坏球XDD 04/12 09:19
184F:→ jiaxie: 本季主场首轰 04/12 09:19
185F:→ Tr3vyy: 没人抢炸裂文 04/12 09:19
186F:→ coyoteY: 山本:... 04/12 09:19
187F:推 joanna1212: 两队都首打首轰 04/12 09:19
188F:→ zealotlai274: 稀松平常没人抢 04/12 09:19
189F:推 benboy: 打开电视就看到炸了 04/12 09:19
190F:推 SULAjardin: 内角坏球挥棒,大谷选球近况太差 04/12 09:19
191F:→ eellee: 有喔 马上追平 04/12 09:19
192F:→ fbi258ghost: 前面红中没打XD 04/12 09:19
193F:→ hi750403: 再来塔克老师醒醒 04/12 09:19
194F:推 gilingking: 太神啦 04/12 09:19
195F:→ hi750403: 塔克老师好凉 04/12 09:20
196F:推 b258963147: = = 04/12 09:20
197F:→ Getbackers: 一局上复制贴上 04/12 09:20
198F:→ sooder: 今天都不打红肿,打坏球 04/12 09:20
199F:→ jiaxie: 塔克 挥空吃K 04/12 09:20
200F:→ crayon1988: 甲K 04/12 09:20
201F:→ pirates223: 大谷那颗内角坏球= = 04/12 09:20
202F:→ crayon1988: 大谷这发补下去OPS.955了 04/12 09:21
203F:→ jjwxtmdl: 甲K少年家 04/12 09:21
204F:推 Willdododo: H 04/12 09:21
205F:推 Ferrari360: 刚大谷那颗 跟去年三响的第二发一样位置 04/12 09:21
206F:→ pirates223: OPS大进补 04/12 09:21
207F:→ fbi258ghost: 对啊 框框外的样子 04/12 09:21
208F:→ hi750403: 影帝水辣 04/12 09:21
209F:推 iyvx7c: 影帝H 04/12 09:21
210F:→ jiaxie: Smith 左外落地安打! 04/12 09:21
211F:→ hi750403: 来阿再来阿 04/12 09:21
212F:推 ZEONEX: 影帝助攻安打 04/12 09:21
213F:推 zxcghjko: H 04/12 09:22
214F:→ hi750403: 串连一下阿 04/12 09:22
215F:推 shuyuhuang: 影帝H 04/12 09:22
216F:→ hi750403: 二哥醒醒阿 04/12 09:22
217F:推 huangjyuan: 翔平今天双响 楼下100P 04/12 09:22
218F:→ Ferrari360: 好 04/12 09:22
219F:→ pirates223: 好 04/12 09:22
220F:推 Getbackers: 翔平:听说昨天有人三响? 04/12 09:23
221F:→ hi750403: 喔喔站着就好 04/12 09:23
222F:→ hi750403: 水辣 04/12 09:23
223F:推 SHOTN17: BB 04/12 09:23
224F:推 woddy: bb 04/12 09:23
225F:→ sooder: BB 04/12 09:23
226F:推 Ferrari360: 盲西来罗~ 04/12 09:23
227F:推 hatephubbing: 这麽早就有状况 04/12 09:23
228F:推 fbi258ghost: 芒炮来了 04/12 09:23
229F:→ hi750403: 来阿都送回来如何忙c 04/12 09:23
230F:→ lonely235711: 看板右下1212是什麽意思? 04/12 09:23
231F:推 whosu: 选一个BB 04/12 09:23
232F:推 nigatsuki: 游骑兵杀手来了 04/12 09:23
233F:推 yangtsur: 钓蚥o 04/12 09:23
234F:推 gache0824: 四支全垒打都是低球,由其内角低特别会打 04/12 09:23
235F:推 Willdododo: 盲西还能炸吗 04/12 09:23
236F:推 ZEONEX: 自由人保送 轮到 超忙西 04/12 09:23
237F:推 zxcghjko: BB 04/12 09:23
238F:推 hpfan: 忙西来罗 04/12 09:23
239F:→ hi750403: 来阿来阿 04/12 09:23
240F:→ fbi258ghost: 挑战 04/12 09:23
241F:→ fbi258ghost: 次数 04/12 09:24
242F:→ Getbackers: 1212是挑战次数 04/12 09:24
243F:推 tmpss90105: 准时下班的男人 04/12 09:24
244F:推 darren31112: 忙西又落後一轰了,快补上 04/12 09:24
245F:→ hi750403: 阿阿放掉 04/12 09:24
246F:→ jiaxie: Freeman 精选4球BB 04/12 09:24
247F:→ hatephubbing: 不要装忙☺ 04/12 09:24
248F:→ ZEONEX: 1212就是abs 挑战次数 04/12 09:24
249F:→ Ferrari360: 可惜 04/12 09:24
250F:推 heaven12: 芒西空振 04/12 09:24
251F:推 crayon1988: K 04/12 09:25
252F:→ hi750403: ,,,, 04/12 09:25
253F:→ nigatsuki: 挥空QQ 04/12 09:25
254F:→ fbi258ghost: 98 K 04/12 09:25
255F:推 SHOTN17: 98 HFB 04/12 09:25
256F:→ Getbackers: 没有天天过年的 04/12 09:25
257F:→ Ferrari360: 再来一分吧 04/12 09:25
258F:推 cat110211: K 04/12 09:25
259F:推 b258963147: == 04/12 09:25
260F:→ jiaxie: Muncy 挥空吃K 04/12 09:25
261F:→ hi750403: 不会又没得分吧 04/12 09:25
262F:推 Uizmp: 今天是盲 04/12 09:25
263F:→ hi750403: 老师阿 04/12 09:25
264F:→ heaven12: 老师炸裂 04/12 09:26
265F:→ Ferrari360: 炸 04/12 09:26
266F:推 Willdododo: WOW 04/12 09:26
267F:推 angel1314: 炸 04/12 09:26
268F:→ crayon1988: 炸裂! 04/12 09:26
269F:推 hatephubbing: ???????? 04/12 09:26
270F:推 JWalk77: 炸 04/12 09:26
271F:→ sooder: 炸裂 04/12 09:26
272F:推 daydreamer13: 炸烂 04/12 09:26
273F:→ SHOTN17: 老师 !!! 04/12 09:26
274F:推 jimmily: 老师!!!!!!!!!!!!!!!!!!!! 04/12 09:26
275F:→ hi750403: 干道奇 04/12 09:26
276F:推 force5566: 炸 04/12 09:26
277F:→ nigatsuki: 老师啊啊啊啊啊 04/12 09:26
278F:→ fbi258ghost: 好惨 打到就知道了 04/12 09:26
279F:推 mashmabo: 老师! 04/12 09:26
280F:推 johnnyvose: 太扯了 04/12 09:26
281F:推 jkl85621: 老师! 04/12 09:26
282F:推 z23061542: 炸裂 04/12 09:26
283F:推 yangtsur: 炸烂 04/12 09:26
284F:推 whosu: 哇 炸了 04/12 09:26
285F:推 woddy: 炸啦 04/12 09:26
286F:→ cat110211: 炸 04/12 09:26
287F:推 carlchang092: 老师好猛 04/12 09:26
288F:推 frankie30432: 宇宙躲 04/12 09:26
289F:推 akiraje: 西语老师今年复活了吗 04/12 09:26
290F:推 ScotchWhisky: 老师! 04/12 09:26
291F:→ hi750403: 道奇太扯了 04/12 09:26
292F:推 xin114242: 西语老师!! 04/12 09:26
293F:推 kitvxq: 居然是你啊啊 04/12 09:26
294F:→ b258963147: 7777777777777777777 04/12 09:26
295F:推 lafeelbarth: 宇宙道奇… 04/12 09:26
296F:→ angel1314: 被嘎出去了 04/12 09:26
297F:推 babuza: 3分炮 04/12 09:26
298F:推 pinkysecret: 老师也炸 04/12 09:26
299F:推 kiv9137: 西语老师三分球 04/12 09:26
300F:推 ZEONEX: 西语老师 三分炮!!!!!!! 04/12 09:26
301F:推 galiyo: 诗涵好幸福 XD 04/12 09:26
302F:推 nolimits: 这什麽发球机 04/12 09:26
303F:推 d16352003: 炸开了 04/12 09:26
304F:推 maimai2063: 笑死 直接炸烂 04/12 09:26
305F:推 zxcghjko: 炸 04/12 09:26
306F:推 eee60109: 被血洗 04/12 09:26
307F:推 TonyGonsolin: RRRRRR!! 04/12 09:26
308F:→ crayon1988: 老师这热区看到我都记起来了 04/12 09:26
309F:推 Pinata23: 暴力 04/12 09:26
310F:推 snoopy63: 打开了啊 04/12 09:26
311F:→ Uizmp: 炸翻 04/12 09:26
312F:→ asd45654: 老师也开始加热了吗 04/12 09:26
313F:推 volleystyle: 闪得过眼镜 闪不过老师 04/12 09:26
314F:推 yohiroki: 这打线长打力太可怕 04/12 09:26
315F:推 sergiorossi: 这是什麽局 04/12 09:26
316F:推 jason0829: 超扯超扯 04/12 09:26
317F:推 ladyssica: 真的每天都有人轮流发威欸 04/12 09:26
318F:推 faratia: 难道老师今天也要三支? 04/12 09:26
319F:→ jiaxie: Hernandez 炸裂3分炮! 04/12 09:26
320F:推 SULAjardin: 宇宙躲正在毁灭棒球 04/12 09:27
321F:推 iyvx7c: 真扯 烟火秀 04/12 09:27
322F:推 raylock1216: 这打线太凶了… 04/12 09:27
323F:→ yangtsur: 道奇全垒打队 04/12 09:27
324F:推 mikilin23: 起爆机大谷 04/12 09:27
325F:→ hatephubbing: 又没人抢了☺ 04/12 09:27
326F:→ danny2451: 老苏7777 04/12 09:27
327F:推 yang826: 宇宙打击线 04/12 09:27
328F:→ ZEONEX: 开局就把条子打烂 04/12 09:27
329F:推 hpfan: 恐怖道奇 04/12 09:27
330F:推 asd7530297: 恐怖道奇… 04/12 09:27
331F:推 ykes60513: 老师!!!! 04/12 09:27
332F:推 SonnyGray: 第一局就来个大局XD 04/12 09:27
333F:推 shuyuhuang: 老师啊啊啊啊啊啊啊 04/12 09:27
334F:推 chipe7424: 宇宙躲 每一棒都不能松懈 04/12 09:27
335F:→ sergiorossi: 对诗涵也太好了吧 04/12 09:27
336F:推 littlebug421: 球迷用爆米花桶接到的吗xd 04/12 09:27
337F:→ woddy: 确信步,帅 04/12 09:27
338F:→ SHOTN17: 这两场是怎样… 烟火秀逆 两边都在炸 = = 04/12 09:27
339F:→ force5566: 满等帐号好好玩 04/12 09:27
340F:→ hi750403: 那个男人来了 04/12 09:27
341F:推 FannWong: 轻轻一挥 04/12 09:27
342F:推 david3809: 一排电风扇 总会嘎到 04/12 09:27
343F:→ mikilin23: 大谷爆发,後面就会跟上 04/12 09:27
344F:推 dogayo: 这打线没得闪 然後下一棒又是pages 04/12 09:27
345F:推 Ferrari360: 黑丝又来了 04/12 09:27
346F:推 smalla830: 默默看一下山本哪天先发 04/12 09:27
347F:推 ifkill: 山本:……. 04/12 09:27
348F:→ jason0829: 轮流爆发 04/12 09:27
349F:→ Benbenyale: 幸福来的太突然 04/12 09:27
350F:→ eellee: 道奇太猛啦 场场都有人跳出来 怎玩 04/12 09:27
351F:推 disasterD: 道奇打线热起来要怎麽投...... 04/12 09:27
352F:→ eellee: 没有一个人放掉的 04/12 09:27
353F:→ carlchang092: 这到底什麽打线XDDDD 04/12 09:27
354F:→ galleon2000: 宇宙道奇怎麽输 04/12 09:27
355F:→ fbi258ghost: 这对投手也太困难了吧 04/12 09:27
356F:推 Franc1224: 老师要投外角啊 04/12 09:27
357F:→ daydreamer13: 真的是无情炸烂 04/12 09:27
358F:→ woddy: 等等小金也来炸一个 04/12 09:27
359F:推 metro721: 都回来了 04/12 09:27
360F:→ sooder: 山本:乾 04/12 09:27
361F:→ hi750403: 来阿来阿 04/12 09:27
362F:→ DLN2010: 昨天2个扛,今天换别人,怎麽玩 04/12 09:27
363F:→ ScotchWhisky: 诗涵:啊啊 这就是被爱的感觉吗 04/12 09:27
364F:推 ils0104: 诗涵援护率好像都很高?! 04/12 09:27
365F:→ johnnyvose: 这打线只有山本能够压制XD 04/12 09:27
366F:推 KuoMosquito: 前几场都投很好 遇到道奇就爆了.. 04/12 09:27
367F:→ lafeelbarth: 都这样轮流开炸要怎麽打 04/12 09:27
368F:→ xin114242: 爱诗涵 04/12 09:28
369F:→ hi750403: 帕黑凉凉的 04/12 09:28
370F:→ asd7530297: 好久没看大比分打击战 想看 04/12 09:28
371F:推 pttlulu: 又接着超火的帕黑丝,这打线真的... 04/12 09:28
372F:→ july81212: 山本=打线轮值 04/12 09:28
373F:→ crayon1988: 上次对Gausman打三分也很帮忙了吼 04/12 09:28
374F:→ volleystyle: 连怕黑只能打7棒 04/12 09:28
375F:推 s24066774: 4成打击率在道奇只能打七棒 04/12 09:28
376F:推 alain: 道奇这打线真的太扯了…诗涵好幸福 04/12 09:28
377F:推 biosphere: 大狗选球真的变好了 04/12 09:28
378F:→ ZEONEX: 轮到状态最可怕的怕黑斯 04/12 09:28
379F:→ hatephubbing: 第一句就有状况,惨 04/12 09:28
380F:→ force5566: 无差别打线 04/12 09:28
381F:推 nigatsuki: 好险只是界外 04/12 09:28
382F:推 gaea0127: 大家爱诗涵,山本表示: 04/12 09:29
383F:推 Ferrari360: 失打 04/12 09:29
384F:推 dogayo: 投手:第七棒怎麽还有一个打击率四成多的 04/12 09:29
385F:推 mikilin23: 道奇团队全垒打26遥遥领先第二勇士20轰 04/12 09:29
386F:推 snoopy63: 不是山本先发,队友都可以放烟火 04/12 09:29
387F:推 Willdododo: 要30球了 好难投 04/12 09:29
388F:→ heaven12: 帕黑空振 04/12 09:29
389F:→ sooder: 奇怪直球都没打好 可惜 04/12 09:29
390F:→ lafeelbarth: 要30颗了 04/12 09:29
391F:→ crayon1988: 甲K 04/12 09:29
392F:推 Franc1224: 30颗了 04/12 09:29
393F:推 whosu: 大家很疼Sheehan 04/12 09:29
394F:→ hi750403: 哇!好凉 04/12 09:29
395F:推 woddy: 好人 04/12 09:29
396F:推 kevinsun0423: 怕黑子赶下班 04/12 09:29
397F:推 Getbackers: 校正回归 04/12 09:29
398F:推 jiaxie: Pages 吊中挥空吃K 04/12 09:29
399F:推 Jaguarsu: 好人 04/12 09:29
400F:推 johnnyvose: 这局2轰4分 超爽的 04/12 09:29
401F:→ nigatsuki: 急了 04/12 09:29
402F:→ hi750403: 昨天好的今天凉凉 04/12 09:29
403F:→ xin114242: 这打线威力 除非失常 不然真的只有王牌投手压得住吧 04/12 09:30
404F:→ ZEONEX: 怕黑第三第六的红中都没打好 可惜了 04/12 09:30
405F:→ alain: 三k 但掉了四分… 04/12 09:30
406F:推 qwerbear13: 怎麽输 04/12 09:30
407F:推 zealotlai274: 翔平过气了,西语老师一堆OP 04/12 09:30
408F:推 daydreamer13: CD一下可以啦 昨天忙西跟怕黑太扛 04/12 09:30
409F:→ asd45654: 昨天第一打席也差不多 後面就咬的到了 不太担心 04/12 09:30
410F:推 disasterD: 轮流发挥才是最可怕的 04/12 09:30
411F:推 ACerol: 轮流出头、伸缩炮打线 04/12 09:30
412F:推 volleystyle: 轮流扛就很强了 04/12 09:30
413F:→ whosu: 笑死 不说没发现老师一堆人抢 04/12 09:31
414F:→ Getbackers: 道奇打线轮流起床 04/12 09:31
415F:推 KuoMosquito: 我条加油 再尻几发 04/12 09:31
416F:推 smalla830: 大谷打全垒打已经没人在乎了 已当成日常 04/12 09:31
417F:→ hi750403: 至少打线今天有醒水喔 04/12 09:31
418F:→ linlousu: 真的是输流发挥 04/12 09:31
419F:→ hi750403: 诗涵加油阿希望你撑久一点 04/12 09:31
420F:→ volleystyle: 道奇这几场牛棚有爆炸倾向 比赛後段才精彩 04/12 09:32
421F:→ hi750403: 球球,,,水喔 04/12 09:32
422F:推 pirates223: kkk 04/12 09:32
423F:推 crayon1988: K 04/12 09:32
424F:→ hi750403: k 04/12 09:33
425F:推 SHOTN17: 今天滑球很漂亮欸!!! 04/12 09:33
426F:推 zxcghjko: K 04/12 09:33
427F:推 Ferrari360: 稳起来了 04/12 09:33
428F:推 biosphere: 这球漂亮 04/12 09:33
429F:→ hi750403: 水喔来阿 04/12 09:33
430F:推 Jaguarsu: k 04/12 09:33
431F:推 nigatsuki: 除了第一球外投得都不错 04/12 09:33
432F:推 whosu: 漂亮K 04/12 09:33
433F:推 yangtsur: 这打者都虾挥吗 04/12 09:33
434F:推 ycsheaven: 这滑球状态太好了 04/12 09:33
435F:→ asd45654: 诗涵今天比上一次出赛好很多 04/12 09:33
436F:→ hi750403: 先不夸奖好了 04/12 09:33
437F:→ sooder: 还是有点投不进去 04/12 09:33
438F:→ Ferrari360: 滑起来 04/12 09:33
439F:推 daydreamer13: 水喔 04/12 09:34
440F:→ hi750403: ,,,水喔kk 04/12 09:34
441F:推 johnnyvose: GO 04/12 09:35
442F:推 kitvxq: 哇今天好多k 04/12 09:35
443F:推 biosphere: 自由连线 04/12 09:35
444F:→ asd45654: 今天球速有回稳 上一场好像92~3而已 04/12 09:35
445F:→ hi750403: 水喔 04/12 09:35
446F:→ rayes: 有火力支援应该会渐入佳境 04/12 09:35
447F:推 sooder: Kkkk 04/12 09:35
448F:→ biosphere: 原来东港凯尔跑去条子了 04/12 09:35
449F:→ daydreamer13: 水啦~ 04/12 09:35
450F:推 Ferrari360: K!! 04/12 09:35
451F:推 crayon1988: K 04/12 09:35
452F:→ hi750403: kk 04/12 09:35
453F:推 zxcghjko: K 04/12 09:35
454F:推 cklovework: 感觉游骑兵要被开鲁阁了 04/12 09:36
455F:→ biosphere: 冈 04/12 09:36
456F:推 JWalk77: 今天不错欸 04/12 09:36
457F:推 SHOTN17: 好滑 好嫩!!! 04/12 09:36
458F:推 angel1314: Kkk 04/12 09:36
459F:→ johnnyvose: 今天条子打者蛮捧场的 04/12 09:36
460F:推 ScotchWhisky: 水 04/12 09:36
461F:推 Jaguarsu: kkkk 04/12 09:36
462F:→ hi750403: 诗涵自己争气 04/12 09:36
463F:推 oomvp: k k k 04/12 09:36
464F:推 kiv9137: 三球三振 04/12 09:36
465F:推 sharkmew: 滑球不错喔 04/12 09:36
466F:→ Ferrari360: 今天好滑耶 04/12 09:36
467F:→ cklovework: 道奇打者目前没有低迷的 04/12 09:36
468F:推 mo1010174: 水喔 04/12 09:36
469F:→ hi750403: 打线再来吧 04/12 09:36
470F:推 whosu: 今天滑球钓到好多次 04/12 09:36
471F:→ hi750403: 今天状况都不错 04/12 09:36
472F:→ july81212: 今天滑球引诱高 04/12 09:37
473F:→ hi750403: 条子昨天一直轰@_@ 04/12 09:37
474F:推 dylancdylanc: 投打看得舒服 难怪球迷要心情舒服 也是加入道奇队 04/12 09:37
475F:→ hi750403: 阿芙加油 04/12 09:38
476F:推 benboy: 安打魔法来一发 04/12 09:38
477F:推 KWBilly: 芙莉莲 04/12 09:38
478F:推 Ferrari360: 魔法加油 04/12 09:38
479F:推 Eshow: 山本又要羡慕了... 04/12 09:39
480F:→ Romulus: 红中失打 04/12 09:39
481F:推 Franc1224: 魔法部:现无魔法波动 04/12 09:39
482F:→ hi750403: 阿芙缠斗 04/12 09:40
483F:推 daydreamer13: 黏喔 也行 04/12 09:40
484F:推 benboy: 黏一下 04/12 09:40
485F:→ hi750403: 没了 04/12 09:40
486F:推 biosphere: 打进布阵的魔法 04/12 09:41
487F:推 Ferrari360: 彗星~ 04/12 09:41
488F:推 woddy: 小金加油!!! 04/12 09:41
489F:→ benboy: GO 04/12 09:41
490F:→ hi750403: 小金加油阿给个安打阿 04/12 09:41
491F:→ daydreamer13: 打不好能缠斗也是贡献 04/12 09:41
492F:→ asd45654: 有多黏一下还行了 04/12 09:41
493F:→ benboy: 彗星来了 04/12 09:41
494F:推 oomvp: 小金加油 04/12 09:41
495F:推 heaven12: 小金FO 04/12 09:41
496F:→ biosphere: 小金加油 04/12 09:41
497F:推 yangtsur: 小金也学大谷 上场前跟主审致意吗 04/12 09:41
498F:→ Ferrari360: 可惜啊 04/12 09:41
499F:→ hi750403: 阿!不够 04/12 09:41
500F:→ daydreamer13: 哎呀呀 04/12 09:41
501F:推 jiaxie: Freeland 滚地OUT 04/12 09:41
502F:→ woddy: 可惜 04/12 09:41
503F:→ benboy: 可惜啊 04/12 09:42
504F:推 KWBilly: 没了 04/12 09:42
505F:推 Tr3vyy: 可惜 04/12 09:42
506F:→ Gazza555: 好紮实阿 04/12 09:42
507F:→ hi750403: 公务员下班了你二吗 04/12 09:42
508F:推 pirates223: 小金的出场曲还是很好听 04/12 09:42
509F:→ daydreamer13: 想说咬到了 结果FO 04/12 09:42
510F:推 Romulus: 打线唯一强打能力不强的就彗星而已 04/12 09:42
511F:推 SHOTN17: 反方向对小金还是太难了 04/12 09:42
512F:→ oomvp: 90分飞球 04/12 09:42
513F:推 sharkmew: 力量真的有差 04/12 09:42
514F:推 hpfan: 小金可惜 04/12 09:42
515F:推 carlchang092: 小金反方向力量不错欸 04/12 09:42
516F:→ wl2340167: 满紮实的 04/12 09:42
517F:→ hi750403: 下班还是继续打卡呢 04/12 09:42
518F:→ jiaxie: Kim 左外飞球OUT 04/12 09:42
519F:推 shuyuhuang: 可惜 04/12 09:42
520F:→ pirates223: 可惜 04/12 09:42
521F:→ Ferrari360: 可惜! 04/12 09:42
522F:→ Gazza555: d0.0b 04/12 09:42
523F:推 crayon1988: 失打 04/12 09:42
524F:推 SonnyGray: 力量差距XD 04/12 09:42
525F:推 cool34: 小金这球打的不错 可惜了 04/12 09:42
526F:推 windphilip: 危 04/12 09:42
527F:→ benboy: 敢不敢双响 04/12 09:42
528F:→ Tr3vyy: 肉包耶 04/12 09:42
529F:→ yangtsur: 红中没打好 红中是弱点啊 04/12 09:42
530F:→ dylancdylanc: 耗到用球数也是贡献 不然乡民会说 我来打也一样 04/12 09:42
531F:推 whosu: FO 力量不够出去 04/12 09:42
532F:推 raylock1216: 未看先猜开轰後被K 04/12 09:42
533F:→ biosphere: 不击 04/12 09:43
534F:→ hi750403: 大谷放掉,, 04/12 09:43
535F:→ crayon1988: 不击 04/12 09:43
536F:→ heaven12: 大谷第二打席内野安 04/12 09:43
537F:→ sooder: 哇靠今天不是红中不打 04/12 09:43
538F:→ hi750403: 嗯。下班了 04/12 09:43
539F:→ pirates223: 肉包打成这样XD 然後又不击 K味 04/12 09:43
540F:→ crayon1988: 这也行 04/12 09:43
541F:→ Ferrari360: 笑死 04/12 09:43
542F:→ cool34: 乡民会说 打小力一点就中左外野落地安打了 04/12 09:43
543F:推 gotohikaru: XDDD 04/12 09:43
544F:→ benboy: 甜球都放掉 等内角? 04/12 09:43
545F:→ daydreamer13: 超鸟安 04/12 09:43
546F:推 johnnyvose: 笑死 04/12 09:43
547F:推 mashmabo: 笑死 04/12 09:43
548F:→ biosphere: 幸运安打XD 04/12 09:43
549F:推 iyvx7c: 内安 04/12 09:43
550F:→ akiraje: 急了 04/12 09:43
551F:推 mark70: 水枪 04/12 09:43
552F:推 kitvxq: 笑死 04/12 09:43
553F:推 frankie30432: 高中生好快 04/12 09:43
554F:→ carlchang092: 超鸟XDDDDD 04/12 09:43
555F:→ Romulus: 这球也没很红中 XD 04/12 09:43
556F:推 angel1314: 哈哈 04/12 09:43
557F:→ SHOTN17: 腿 !!! 04/12 09:43
558F:推 babuza: 内野安 04/12 09:43
559F:推 Vincent8026: 超鸟 04/12 09:43
560F:推 moonzone: H 04/12 09:43
561F:推 woddy: 鸟安 04/12 09:43
562F:推 zxcghjko: 鸟 04/12 09:43
563F:推 jimmily: 这样都行 04/12 09:43
564F:推 a2350221: 笑死 04/12 09:43
565F:推 JWalk77: 超鸟安 04/12 09:43
566F:推 jason0829: 好会跑 04/12 09:43
567F:→ hi750403: 疑这也行 04/12 09:43
568F:→ SonnyGray: 笑死XDDDDD 04/12 09:43
569F:推 teata: 哈哈 04/12 09:43
570F:→ jiaxie: 笑死 本前鸟滚安打 04/12 09:43
571F:→ Tr3vyy: 小水枪 04/12 09:43
572F:推 volleystyle: 笑死鸟安 04/12 09:43
573F:推 hantsao: 超短安打 04/12 09:43
574F:推 zergtide: 内野安打 04/12 09:43
575F:推 frog0824: 手软 04/12 09:43
576F:推 kiv9137: 内安笑死 04/12 09:43
577F:→ Ferrari360: 该跑了 04/12 09:43
578F:→ shuyuhuang: 这也安哈哈哈 04/12 09:43
579F:→ wl2340167: 鸟安上垒笑死 04/12 09:43
580F:推 yang826: 好会跑 04/12 09:43
581F:推 lafeelbarth: XD 04/12 09:43
582F:→ SHOTN17: 杰尼杰尼! 04/12 09:43
583F:→ yangtsur: 腿哥. Logo 不是选假的 04/12 09:43
584F:→ pirates223: 笑死 内野鸟安 04/12 09:43
585F:→ Vincent8026: 算投手E吗 04/12 09:43
586F:推 luca714: 只会炸裂或水枪 04/12 09:43
587F:推 sergiorossi: 这也行XD 04/12 09:43
588F:推 asdf70044: hhhhhh 04/12 09:43
589F:→ hi750403: 看他真的很娱乐 04/12 09:43
590F:→ whosu: 笑死 鸟安 04/12 09:43
591F:推 TonyGonsolin: 笑死 04/12 09:43
592F:推 ScotchWhisky: 水枪鸟安 04/12 09:43
593F:→ Romulus: 水枪发射 跑速现在不知道怎样 04/12 09:43
594F:推 Jaguarsu: 腿哥 04/12 09:43
595F:推 chipe7424: 这也可以 04/12 09:43
596F:推 tupacshkur: 大谷快腿,投手会慌 04/12 09:43
597F:推 grade1kimo: 你也懂短打 04/12 09:43
598F:推 oomvp: 笑死这样也可以 04/12 09:43
599F:推 mork8850: 这样也行? 04/12 09:43
600F:推 KWBilly: 鸟 04/12 09:43
601F:推 Pinata23: 这也上 04/12 09:43
602F:→ daydreamer13: 鸟安很多 没几个这麽鸟的 04/12 09:43
603F:推 Riseagainst: power and speed 04/12 09:43
604F:推 Benbenyale: 球很滑? 04/12 09:43
605F:推 angowei: 小水枪 04/12 09:43
606F:→ kitvxq: 算失误吗 04/12 09:43
607F:推 ycsheaven: 刚刚炸裂现在超鸟安xdddd 04/12 09:43
608F:→ Shift2: 是不是很久没这样跑了XD 04/12 09:44
609F:推 ACerol: 腿安 04/12 09:44
610F:推 s860382: 太烫 04/12 09:44
611F:推 bin17: 大谷灵气 04/12 09:44
612F:→ hi750403: 塔克老师给我醒醒 04/12 09:44
613F:→ Tr3vyy: 总算认真跑了XD 04/12 09:44
614F:推 huangjyuan: lucky 04/12 09:44
615F:推 mictoaety: 类短打 04/12 09:44
616F:→ benboy: 这也行XD 04/12 09:44
617F:推 pttlulu: 今天要完全打击了 04/12 09:44
618F:→ Jaguarsu: 这不知道会不会算E 04/12 09:44
619F:→ iyvx7c: 都2-2了 超过公务员标准了 04/12 09:44
620F:→ LuCkySAiGTo: 来场完全打击 04/12 09:44
621F:推 Siika: 搞笑 04/12 09:44
622F:推 super009: 连一朗式的安打也会 04/12 09:44
623F:→ Vincent8026: 手有摸到,没抓好 04/12 09:44
624F:→ lafeelbarth: 第一次打那麽远第二次打那麽近 04/12 09:44
625F:推 xin114242: 大谷快腿 投手很慌 04/12 09:44
626F:→ kitvxq: 记内安 04/12 09:44
627F:推 IMBonjwa: 小小水枪! 04/12 09:44
628F:推 babuza: 鸟安 04/12 09:44
629F:→ eellee: 急了 04/12 09:44
630F:推 KSUGOD: 一郎上身 04/12 09:44
631F:推 ichihnice: 大谷跑垒会有风压 04/12 09:44
632F:→ volleystyle: 力量99打这鸟安 04/12 09:44
633F:推 max5209: 轻浮安 04/12 09:44
634F:→ wl2340167: 水枪biubiu 04/12 09:44
635F:→ hi750403: 塔克老师别吃k捏 04/12 09:44
636F:推 socharge: 这才是我想要看到安打 04/12 09:44
637F:→ pirates223: 好好笑 炸裂完类短打超鸟安 04/12 09:44
638F:推 asd7530297: 被蓝鸟捕手扁那一下到底有没有受伤 04/12 09:44
639F:推 s24066774: 这种球本来就不好抓,记安打正常 04/12 09:44
640F:→ Romulus: 刷一次50-50 现在大家都有错觉他冲垒很快 XD 04/12 09:44
641F:→ huangjyuan: 内安合理 投手还要下丘 04/12 09:44
642F:→ shuyuhuang: 塔克老师醒醒 今天投手不是山本x 04/12 09:44
643F:推 mikilin23: 大谷又双安了..会不会延续前面双安必下班?还是会突破 04/12 09:44
644F:推 realblank: 跑快一点 就给内野安打了 04/12 09:44
645F:→ biosphere: 火力展示+速度展示,虾仁猪心 04/12 09:44
646F:推 S6651038727: 打不准 04/12 09:45
647F:→ benboy: 大风风压太强影响投手拿球 04/12 09:45
648F:→ whosu: 要抓要徒手难度太高了 04/12 09:45
649F:嘘 dlcay: 这给安打??? 04/12 09:45
650F:→ huangjyuan: 今年还没猛打赏 都卡两支 04/12 09:45
651F:→ mikilin23: 大谷至少还有3打席可以挤出第三安对吧 04/12 09:45
652F:→ Romulus: 其实慢慢来好好捡应该来得及 但是慌了 04/12 09:45
653F:→ hi750403: 塔克老师,,,站好 04/12 09:45
654F:→ heaven12: GO 04/12 09:45
655F:→ hi750403: 喔喔搞皮 04/12 09:46
656F:→ sooder: … 04/12 09:46
657F:推 Ferrari360: QQ 04/12 09:46
658F:→ biosphere: 鸟打XD 04/12 09:46
659F:→ benboy: 其实鸟安就是落点太好 不好处理XD 04/12 09:46
660F:推 jiaxie: 塔克 一垒鸟滚OUT 04/12 09:46
661F:推 nigatsuki: 老师最近状况不太好啊 04/12 09:46
662F:推 faratia: 主播:这是道奇打线最弱的区块 球评:笑死 04/12 09:46
663F:→ eellee: 因为没办法保证有顺利拿起球就一定能抓到吧 04/12 09:46
664F:→ hi750403: 凉凉a老师 04/12 09:46
665F:推 daydreamer13: 塔克老丝你 04/12 09:46
666F:推 johnnyvose: 塔克不行啊 超鸟 04/12 09:46
667F:推 volleystyle: 老师有点凉 04/12 09:46
668F:推 shuyuhuang: QQ 04/12 09:46
669F:→ hi750403: 这两个老师是说好轮流醒的喔 04/12 09:46
670F:→ Romulus: 不急 04/12 09:46
671F:推 akujiki: 塔克好像太贵了 04/12 09:46
672F:推 SHOTN17: 塔克是不是後段才会上班 印象安打都後面打得 04/12 09:46
673F:推 stu2005131: 是还没调整好 还是因为在大谷後面的通病 04/12 09:46
674F:推 dylancdylanc: 道奇的弱区就是大谷後一棒 04/12 09:46
675F:→ benboy: 塔克老师还在调吧 04/12 09:46
676F:→ asd45654: 换塔老师小低潮吧 04/12 09:47
677F:→ volleystyle: 大谷下一棒真的太难了 04/12 09:47
678F:推 sharkmew: 塔克都打後面大谷都打前面 04/12 09:47
679F:推 pirates223: 大谷後一棒八字要够重 塔克加油 04/12 09:47
680F:→ hi750403: 等等再看看吧@_@ 04/12 09:47
681F:推 shinchen: 站大谷後一棒压力太大 04/12 09:47
682F:推 mikilin23: 塔克会不会是下半季爆发型.. 04/12 09:47
683F:→ realblank: 跑速给了投手压力 捡球的时候面前一阵风过去就急了 04/12 09:47
684F:推 colechen: 2棒要不要放帕黑试试看 04/12 09:47
685F:推 pett: 大谷後面那一棒真的难 04/12 09:47
686F:推 sunwit: 塔克现在是先发OPS最低的 04/12 09:47
687F:推 whosu: 塔克最近都後半上班的样子 04/12 09:48
688F:→ hi750403: 诗涵加油再来 04/12 09:48
689F:→ hi750403: 一球省 04/12 09:48
690F:推 Ferrari360: 省 04/12 09:48
691F:推 daydreamer13: 快速一出局 04/12 09:48
692F:推 akujiki: 如果能下半季爆发是最好 04/12 09:48
693F:→ volleystyle: 大谷下一棒好像还没人真的扛住的 04/12 09:48
694F:→ sooder: 省起来 04/12 09:48
695F:推 wl2340167: 诗涵也是条子杀手吗 04/12 09:48
696F:→ mikilin23: 怕黑打最好还是7棒吧..其他位置没那麽好 04/12 09:48
697F:→ hi750403: 省阿 04/12 09:49
698F:→ Ferrari360: 又省 04/12 09:49
699F:→ daydreamer13: 省欸 04/12 09:49
700F:→ hi750403: 三颗两位 04/12 09:49
701F:推 SHOTN17: 魔法生意很好哦 04/12 09:49
702F:→ volleystyle: 超省 04/12 09:49
703F:→ hi750403: 再来 04/12 09:49
704F:推 dylancdylanc: 给他点时间 目前还是战绩最佳.. 04/12 09:49
705F:→ whosu: 这局开始省起来 04/12 09:49
706F:推 biosphere: 处理得不错 04/12 09:49
707F:推 pttlulu: 有够省 04/12 09:49
708F:推 hantsao: 这球不好处理 04/12 09:49
709F:推 ScotchWhisky: 省 04/12 09:49
710F:→ hi750403: 滚地 04/12 09:49
711F:推 Romulus: 轻松的NP 04/12 09:49
712F:推 benboy: 发动美技的魔法 04/12 09:49
713F:→ akujiki: 省到不行 04/12 09:49
714F:→ asd45654: 今天压线蛮准的 04/12 09:49
715F:→ dylancdylanc: 打击有没有串联 好像不碍事 其他有贡献就好 04/12 09:49
716F:→ hi750403: 不会又炸吧 04/12 09:49
717F:→ Romulus: 2棒帕黑甚至放过了 也打的很烂……XD 04/12 09:50
718F:→ hi750403: 水喔这颗 04/12 09:50
719F:→ sooder: 哇还是直接投进去 赞 04/12 09:50
720F:推 woddy: 好曲 04/12 09:50
721F:→ benboy: 压线准 04/12 09:50
722F:推 pirates223: 笑死打击率上升到.294 / ops.973 04/12 09:50
723F:→ cool34: 刚投手是Al Leiter的儿子? 长得有像 04/12 09:50
724F:→ pirates223: sheehan目前状况蛮好的 04/12 09:50
725F:推 sunwit: 这球数是想拚完投吗 04/12 09:50
726F:→ benboy: 小卡说就是儿子 04/12 09:50
727F:推 johnnyvose: 这球打超好 04/12 09:50
728F:推 Ferrari360: 呃 04/12 09:51
729F:推 daydreamer13: 这感觉没挥完欸 04/12 09:51
730F:→ hi750403: ll乾无解 04/12 09:51
731F:推 Getbackers: 场地2安 04/12 09:51
732F:→ sooder: 今天真的解决不了 04/12 09:51
733F:推 babuza: 二垒打 04/12 09:51
734F:→ pirates223: 场地2B 04/12 09:51
735F:推 biosphere: 轻轻碰一下 04/12 09:51
736F:推 windphilip: 这杀毁 04/12 09:51
737F:推 ducatio: 这球弹性也太好 04/12 09:51
738F:推 wenwenwen: 碰一下飞这样?啥小 04/12 09:51
739F:→ daydreamer13: 有点凶 这样能碰这麽远 04/12 09:51
740F:→ benboy: 好烫 老师追不到XD 04/12 09:51
741F:推 wl2340167: 场地二安 真的处理不了 04/12 09:51
742F:推 ScotchWhisky: 这样也能飞这麽远 04/12 09:51
743F:→ sooder: 有完整挥棒可能又出去了 04/12 09:51
744F:推 whosu: 真的解决不了Nimmo 04/12 09:51
745F:→ hantsao: 碰一下飞超远 04/12 09:51
746F:推 volleystyle: 有够弹 04/12 09:51
747F:推 shinchen: 碰一下差点飞出去 04/12 09:51
748F:推 vickyboy: 老师这种破守备 04/12 09:51
749F:→ hi750403: 救我阿 04/12 09:51
750F:→ SHOTN17: 唯一解决不掉的 挥一半都飞那麽远 … 然後老师是被尼莫 04/12 09:51
751F:→ SHOTN17: 的挥棒骗了吗 = = 04/12 09:51
752F:推 samsam80821: 状况好的人就是这样 04/12 09:51
753F:推 akiraje: 这能喷那麽快??? 04/12 09:51
754F:推 jiaxie: 2OUT DOUBLE 04/12 09:51
755F:→ pirates223: 94解决不了尼莫 04/12 09:51
756F:→ Ferrari360: 没事 04/12 09:52
757F:→ sooder: Kkkk 04/12 09:52
758F:推 johnnyvose: 杜兰真的超烂 04/12 09:52
759F:推 angel1314: Kkk 04/12 09:52
760F:推 woddy: kkkkk 04/12 09:52
761F:推 gm852456: 太扯,球是不是太弹了 04/12 09:52
762F:→ SHOTN17: K 04/12 09:52
763F:→ daydreamer13: 下庄~ 04/12 09:52
764F:推 crayon1988: 有够捧场 04/12 09:52
765F:→ ScotchWhisky: 下庄 04/12 09:52
766F:→ hi750403: 状况真好 04/12 09:52
767F:→ benboy: Kkkk 04/12 09:52
768F:→ jiaxie: 好险接下来3球K 04/12 09:52
769F:推 darren2586: 真的只有一个解决不了 04/12 09:52
770F:→ biosphere: 手套掉线了 04/12 09:52
771F:→ hi750403: 打线再来 04/12 09:52
772F:推 dogayo: 瞎挥 04/12 09:52
773F:推 fbi258ghost: 外角就K了 04/12 09:52
774F:→ whosu: 过Nimmo後继续解决 04/12 09:52
775F:推 xin114242: 刚刚那球 西语老师应该以为不会飞那麽远吧 04/12 09:53
776F:推 akujiki: 诗涵赞喔 04/12 09:53
777F:→ asd45654: 只能说尼莫今天太会打 不然诗涵今天压制其他人都很好 04/12 09:53
778F:→ crayon1988: MLB的球当然弹阿 04/12 09:53
779F:推 zego41: 瞎挥好人 04/12 09:53
780F:推 realblank: 就第一棒专打Sheehan 下次保送他好了 04/12 09:53
781F:→ daydreamer13: 尼莫那球还是很猛 棒子没挥完碰这麽远 04/12 09:53
782F:推 ZEONEX: sheehan今天只怕nimmo 04/12 09:53
783F:推 shuyuhuang: 诗涵赞赞 04/12 09:53
784F:→ hi750403: 希望多吃一些 04/12 09:53
785F:推 sunwit: 全部坏球却三振 04/12 09:53
786F:→ benboy: 球真弹 但总全垒打数好像没明显变多?XD 04/12 09:53
787F:→ whosu: 动作也没完整没想到远成那样吧 04/12 09:53
788F:→ SHOTN17: 他就看到尼莫只挥一半以为是小飞球 然後就…… 04/12 09:53
789F:推 TonyGonsolin: 系罕今天超强 04/12 09:54
790F:→ hi750403: 来阿打线们 04/12 09:54
791F:推 Ferrari360: 可惜 04/12 09:56
792F:→ hi750403: 影帝满 04/12 09:56
793F:→ hi750403: 水喔 04/12 09:56
794F:→ hi750403: 再来得分一下吧 04/12 09:56
795F:推 jiaxie: Smith 满球数选到BB 04/12 09:56
796F:→ hi750403: 二哥醒醒 04/12 09:57
797F:推 ScotchWhisky: 选的好 04/12 09:57
798F:推 volleystyle: 影帝选球眼 04/12 09:57
799F:推 benboy: 二哥逐渐退化中QQ 04/12 09:58
800F:→ hi750403: 二哥水辣 04/12 09:58
801F:推 Ferrari360: 穿啦 04/12 09:58
802F:推 daydreamer13: 水喔水喔 04/12 09:58
803F:推 SHOTN17: 二哥! 04/12 09:58
804F:→ hi750403: 应该可以得分了 04/12 09:58
805F:推 angel1314: 喔喔再来 04/12 09:58
806F:推 zxcghjko: 水啦 04/12 09:58
807F:推 sooder: 千万要得分啊!!! 04/12 09:58
808F:推 mashmabo: 又要爆了? 04/12 09:58
809F:推 inschool: 0出局12垒 04/12 09:58
810F:→ benboy: 二哥有啦 04/12 09:58
811F:推 ScotchWhisky: 串连 04/12 09:58
812F:→ volleystyle: 自由人近期还行吧 04/12 09:58
813F:→ Ferrari360: 至少可以拿两分吧 04/12 09:58
814F:推 ils0104: 这颗打真好欸 04/12 09:58
815F:推 xin114242: 太难了 这投手 04/12 09:58
816F:推 huangjyuan: 这打线太难投了 04/12 09:58
817F:→ inschool: 喔13垒 04/12 09:59
818F:推 jiaxie: Freeman 一垒边线安打,影帝到3B 04/12 09:59
819F:推 disasterD: 这打线真的好讨厌 04/12 09:59
820F:→ hi750403: 忙c烟火如何 04/12 09:59
821F:→ eellee: 实在是太难投了 04/12 09:59
822F:推 asd3613: 这个先发了不起称5局了 04/12 09:59
823F:→ benboy: 条子爸爸来了 04/12 09:59
824F:→ huangjyuan: 如果是我 先发投道奇 我会哭出来XD 04/12 09:59
825F:→ angel1314: 芒西眼镜发功一下吧 04/12 09:59
826F:→ ScotchWhisky: 眼镜销售员敢不敢投三分球 04/12 09:59
827F:→ Ferrari360: 可惜 04/12 09:59
828F:→ hi750403: 选好阿,, 04/12 09:59
829F:→ benboy: 伸卡没打好 04/12 10:00
830F:→ hi750403: 喔喔电风扇概念 04/12 10:00
831F:推 leocheng: 芒西轰他 04/12 10:00
832F:→ angel1314: 没接到 04/12 10:00
833F:→ hi750403: 基本也好阿 04/12 10:00
834F:→ benboy: 差点接杀 04/12 10:00
835F:推 Willdododo: 忙一下啊 04/12 10:00
836F:推 sediments: 这打线全员状况好真的不知道怎麽投 04/12 10:00
837F:→ benboy: 黏一下 04/12 10:01
838F:→ hi750403: 阿!这投手好难 04/12 10:01
839F:→ hi750403: 喔喔缠斗 04/12 10:01
840F:推 mashmabo: 黏喔 04/12 10:01
841F:→ benboy: 黏 04/12 10:02
842F:推 daydreamer13: Leiter当练等吧 04/12 10:02
843F:推 faratia: 芒西今天高球好像胃口很好 04/12 10:02
844F:推 whosu: 继续缠 04/12 10:02
845F:推 SHOTN17: 黏 04/12 10:02
846F:推 dylancdylanc: 今年打线拚百一十胜.. 04/12 10:02
847F:推 Getbackers: 缠 04/12 10:02
848F:推 biosphere: 今天胃口也太好 04/12 10:02
849F:→ daydreamer13: 面对这种打线能吃不少经验值 04/12 10:02
850F:→ benboy: Leiter 球种真多 04/12 10:02
851F:推 realblank: 连两颗大坏球也打得到 04/12 10:02
852F:→ hi750403: 阿继续耗 04/12 10:02
853F:推 volleystyle: 黏爆了 04/12 10:03
854F:推 jiaxie: 盲西粘巴达 04/12 10:03
855F:→ hi750403: 哇!好多颗 04/12 10:03
856F:推 inschool: 这都粘得到 04/12 10:03
857F:→ SHOTN17: 超黏… 04/12 10:03
858F:推 sunwit: 坏球都不放过 04/12 10:03
859F:→ sooder: 好坏都破坏XD 04/12 10:03
860F:→ biosphere: 现在好球带跟太平洋一样大 04/12 10:03
861F:推 ScotchWhisky: 蚕豆 04/12 10:03
862F:推 crayon1988: 满 04/12 10:03
863F:→ hi750403: 投手,,我想下下班 04/12 10:03
864F:→ benboy: 眼镜黏死你了 04/12 10:03
865F:推 sergiorossi: 要70了== 04/12 10:03
866F:→ Getbackers: 满 04/12 10:03
867F:推 uranuss: 黏 04/12 10:03
868F:推 Franc1224: 第10颗 04/12 10:03
869F:→ whosu: 这都黏 04/12 10:03
870F:推 ZEONEX: 忙西超黏xd 04/12 10:03
871F:→ daydreamer13: 亏大了 04/12 10:03
872F:→ SHOTN17: 眼镜:选球+10 !! 04/12 10:03
873F:推 zego41: 西德眼镜发威 04/12 10:03
874F:→ Getbackers: bb 04/12 10:03
875F:→ sooder: Bb 04/12 10:03
876F:→ hi750403: 喔喔喔满 04/12 10:04
877F:推 angel1314: 选 04/12 10:04
878F:推 darren2586: 真的被搞心态 04/12 10:04
879F:推 luca714: 太苦了 04/12 10:04
880F:推 zxcghjko: 黏到BB 04/12 10:04
881F:推 wl2340167: 3局投到70 累死 04/12 10:04
882F:推 po5454: 缠 04/12 10:04
883F:推 sediments: 11颗换到BB 04/12 10:04
884F:→ inschool: 黏10颗还上垒 超靠邀 04/12 10:04
885F:→ crayon1988: 11球BB 投手要吐了 04/12 10:04
886F:推 yang826: 厉害 04/12 10:04
887F:→ ScotchWhisky: 满垒 04/12 10:04
888F:→ biosphere: 太苦了 04/12 10:04
889F:推 faratia: 再来一支啊 04/12 10:04
890F:→ SHOTN17: 投手要哭了吧 = = 04/12 10:04
891F:→ volleystyle: 太难了 04/12 10:04
892F:推 JWalk77: 这个打席好赞 04/12 10:04
893F:推 KWBilly: 太苦了 04/12 10:04
894F:→ benboy: 忙西赢了 BB 04/12 10:04
895F:推 TonyGonsolin: 怕 04/12 10:04
896F:→ fbi258ghost: 完了 今天5局投得完吗 04/12 10:04
897F:→ ZEONEX: 满垒遇上西语老师 04/12 10:04
898F:推 ils0104: 芒西厉害了 04/12 10:04
899F:推 cool8418: 打了一堆界外还是BB 04/12 10:04
900F:推 mashmabo: 耗一堆球数 还保送 投手累死 04/12 10:04
901F:推 deathslipkno: 无人出局 来了 04/12 10:04
902F:→ uranuss: 花了这麽多结果BB 04/12 10:04
903F:→ whosu: 最後BB 投手好惨 04/12 10:04
904F:推 justtakethat: 原来是Al Leiter的儿子 04/12 10:04
905F:→ cool8418: 有够恶心XD 04/12 10:04
906F:推 nightcrow: 整个打线都烫 04/12 10:04
907F:推 dogayo: 换到今天开轰的西语老师 04/12 10:04
908F:→ wl2340167: 又遇到打三分炮的 难受 04/12 10:04
909F:推 mo1010174: 三局70球还没有出局数 04/12 10:04
910F:→ benboy: 老师敢双响吗 04/12 10:04
911F:推 alain: 好扯 马上又满了 04/12 10:04
912F:→ Tiger23: 11颗球结果凹到保送QQ 04/12 10:04
913F:→ daydreamer13: 弟弟乖乖练等吧 出来混学费一定要缴的 04/12 10:04
914F:→ yang826: 投了这麽多还是上垒 04/12 10:04
915F:推 jiaxie: Muncy 缠斗11球选到BB,无人出局,满垒的道奇! 04/12 10:04
916F:→ zego41: 三局70球还没解决一个人 我看差不多了 04/12 10:04
917F:→ realblank: 叫个暂停 让牛棚赶快热身 04/12 10:04
918F:→ sooder: 再来一发吧 04/12 10:04
919F:推 frankie30432: 该来点分数了 04/12 10:04
920F:→ Getbackers: 今天顶多4局 04/12 10:05
921F:推 moonzone: 满贯炮预备 04/12 10:05
922F:→ SHOTN17: 无人出局满垒 老规矩 两分及格 04/12 10:05
923F:→ hi750403: 至少要两分 04/12 10:05
924F:→ alain: 西德眼镜太虐人了 04/12 10:05
925F:→ yang826: 至少基本功啊 04/12 10:05
926F:推 leocheng: 太凌迟了 惨 04/12 10:05
927F:推 p0916336248: 三振 04/12 10:05
928F:推 lmf770410: Muncy 真的难缠 04/12 10:05
929F:→ crayon1988: 零出满垒 04/12 10:05
930F:→ hi750403: 等他自己爆好了 04/12 10:05
931F:→ wl2340167: 怎麽有预言家== 04/12 10:05
932F:→ Getbackers: 会中计吗 04/12 10:05
933F:推 Franc1224: 这局大谷有机会第三打席吗 04/12 10:05
934F:→ hi750403: 年轻人的压力 04/12 10:05
935F:推 biosphere: 不击 04/12 10:06
936F:→ hi750403: 老师你竟然放掉 04/12 10:06
937F:→ benboy: 狂丢外角就对了 04/12 10:06
938F:→ zego41: 球速其实不错 04/12 10:06
939F:→ sooder: 球速飙起来了 04/12 10:06
940F:→ SHOTN17: 99! 04/12 10:06
941F:→ hi750403: 靠基本也好阿 04/12 10:06
942F:→ biosphere: 速度催起来 04/12 10:06
943F:推 angel1314: 老师能再嘎出去吗? 04/12 10:06
944F:推 asd7530297: 飙起来 最後一局 04/12 10:06
945F:→ benboy: 99 失打 04/12 10:06
946F:推 gotohikaru: DP 04/12 10:06
947F:推 samedi: 好人 04/12 10:06
948F:推 Ferrari360: 靠邀 04/12 10:06
949F:推 sediments: DP 04/12 10:06
950F:→ hi750403: 干 04/12 10:06
951F:→ sooder: … 04/12 10:06
952F:→ zego41: 老师你帮下庄啊 04/12 10:06
953F:→ crayon1988: DP 04/12 10:06
954F:→ angel1314: DP 04/12 10:06
955F:推 frankie30432: 雷 04/12 10:06
956F:推 babuza: DP 04/12 10:06
档案过大!部分文章无法显示
957F:→ pirates223: 大谷还能上来降数据吗(X) 04/12 11:33
958F:推 jfs: 马丁大叔头太白了忍不住查了一下,39岁拿过日本一跟世界大赛 04/12 11:33
959F:→ bboykay: 今天目前还是三分差 04/12 11:33
960F:→ jfs: 冠军XD 04/12 11:34
961F:→ u9596g12: K 04/12 11:34
962F:→ crayon1988: K 04/12 11:34
963F:推 walkaround: C马丁头发好白 04/12 11:34
964F:推 inschool: 挥这颗 04/12 11:34
965F:推 skery3188: K 04/12 11:34
966F:→ angel1314: 凉凉 04/12 11:34
967F:→ johnnyvose: 没啥抵抗能力 04/12 11:34
968F:推 zxcghjko: 瞎挥 04/12 11:34
969F:推 Getbackers: 大谷下班 04/12 11:34
970F:→ iyvx7c: 小金… 04/12 11:34
971F:→ biosphere: 好惨,三挥 04/12 11:34
972F:推 zego41: 小金高的忍不住 04/12 11:34
973F:→ benboy: 南哥来了 04/12 11:34
974F:→ u9596g12: 天下南哥登板 04/12 11:34
975F:→ hi750403: 南哥要关门了 04/12 11:34
976F:推 ZEONEX: 没意外的话 大谷应该顺利下班了 04/12 11:34
977F:→ crayon1988: 南哥今天可以吗 04/12 11:34
978F:推 matico: 小金啊... 04/12 11:34
979F:推 try13286: 南哥 04/12 11:34
980F:推 moonzone: 计画通 让你听小喇叭 04/12 11:34
981F:推 lmf770410: 结果大谷没机会 04/12 11:34
982F:→ pirates223: 南哥 04/12 11:34
983F:推 LukeSkywaker: 超凉zzzzzzz 04/12 11:34
984F:→ jiaxie: Kim 一看二挥三振! 笑死:好险不用上来吃K 04/12 11:34
985F:→ KWBilly: 没喇叭QQQQQQW 04/12 11:34
986F:→ whosu: 凉凉 大谷目前没机会了 04/12 11:34
987F:推 peace305: 小金真的根不上 04/12 11:34
988F:→ Getbackers: 南天组合 04/12 11:34
989F:推 Montrealais: 今天是南哥 04/12 11:34
990F:推 ichihnice: 南哥来了 04/12 11:34
991F:推 gilbertmac: 这麽信任南哥喔 04/12 11:34
992F:推 Tr3vyy: 南哥 04/12 11:34
993F:推 BBOYFA: 谁说大谷会下班的 04/12 11:34
994F:推 MVPG: 电动滑球 电动伸卡 04/12 11:34
995F:推 rockingood: 今天ELTA可以播广告了 04/12 11:34
996F:→ iyvx7c: 萝卜不敢上Diaz继续玩了吗 想看欸 04/12 11:34
997F:→ moonzone: 居然是 04/12 11:34
998F:→ pirates223: 没意外的话笑死下班了 04/12 11:34
999F:→ inschool: 昨天好像 也是3分 04/12 11:34
1000F:推 KANGTA23: 天南收尾! 04/12 11:34
1001F:→ sunwit: 喇叭昨天才搞砸 04/12 11:35
1002F:推 bigbigcc: 没小喇叭听 04/12 11:35
1003F:→ angel1314: 崔男去年开剧场很恐怖的 04/12 11:35
1004F:推 shinchen: 小喇叭昨天用球数太多了 该休息吧 04/12 11:35
1005F:推 lepidoptera: 没有喇叭 04/12 11:35
1006F:推 asws0808: 喇叭不出来? 04/12 11:35
1007F:推 liuon: 南天门撑起道奇 04/12 11:35
1008F:推 Franc1224: 南天门能顺利关门吗? 04/12 11:35
1009F:→ BBOYFA: 喇叭昨天几颗球 04/12 11:35
1010F:推 apollo62: 广告商:谢谢萝卜 04/12 11:35
1011F:→ hi750403: 昨天喇叭太刺激了先不要 04/12 11:35
1012F:推 Bparis: pages:大谷上来也是三球死 不如我先送头 04/12 11:35
1013F:推 abc35: 又看不到了 04/12 11:35
1014F:推 vltw5v: 3分给南哥可以吧... 04/12 11:35
1015F:→ biosphere: 小喇叭昨天用球太多了还BS,今天别上比较好 04/12 11:35
1016F:推 wallaceboy: 条子没机会的 04/12 11:35
1017F:推 Ferrari360: 今天就给南哥了 不需要吹喇叭 04/12 11:35
1018F:推 SHOTN17: 南哥今年的轨迹还行 有24年的味道 04/12 11:35
1019F:推 Eloye: 笑死:我真的可以下班吗? 04/12 11:35
1020F:→ whosu: 还没看过今年的南哥 04/12 11:35
1021F:推 littlebug421: 天天叭也是会出事的 先休息一下 04/12 11:35
1022F:推 crayon1988: 23球 04/12 11:35
1023F:推 nightcrow: 今天没剧本了吧 04/12 11:36
1024F:→ hi750403: 南哥撑住 04/12 11:36
1025F:推 ja11200: 南哥 04/12 11:36
1026F:推 inschool: 喔 这轨迹 04/12 11:36
1027F:→ Ferrari360: 轨迹还是美 04/12 11:36
1028F:推 jiaxie: 看来会先堆个垒? 04/12 11:37
1029F:推 daicloud: 今天没小喇叭Q Q 04/12 11:37
1030F:推 ichihnice: 好会跑 04/12 11:37
1031F:推 Tr3vyy: 伸卡好销魂 04/12 11:37
1032F:推 zego41: 电动滑球 04/12 11:37
1033F:→ ja11200: 这颗伸卡很跑 04/12 11:37
1034F:推 Getbackers: 电动滑 04/12 11:37
1035F:→ SHOTN17: 这个电动滑球 …… 04/12 11:37
1036F:推 biosphere: 电动滑球 04/12 11:37
1037F:推 force5566: 南哥又出现了 04/12 11:37
1038F:推 crayon1988: M2 04/12 11:37
1039F:推 benboy: 电动伸卡 电动滑球 04/12 11:37
1040F:推 foxy0703: 南哥今年目前是比天能好 04/12 11:37
1041F:推 hwer7850: 好猛 04/12 11:37
1042F:→ ja11200: 今天南哥有喔 04/12 11:37
1043F:推 angel1314: 好险 04/12 11:37
1044F:推 zxcghjko: M2 04/12 11:37
1045F:→ jiaxie: 右飞1OUT 04/12 11:37
1046F:→ hi750403: 好险塔克老师有防守 04/12 11:37
1047F:推 evaliao: 南哥看来稳了XD 04/12 11:37
1048F:推 daydreamer13: 今天帅喔 南哥 04/12 11:37
1049F:→ inschool: 这个老师接得到 04/12 11:37
1050F:推 mirrorlee: 今年修好了 04/12 11:37
1051F:推 Yuko300: 隔壁 邓上场 04/12 11:38
1052F:→ hi750403: 是都要吓死人喔 04/12 11:38
1053F:→ jiaxie: 滴了一滴 04/12 11:38
1054F:推 leocheng: 好滑好滑 04/12 11:38
1055F:→ angel1314: 老师接的话可能变2B 04/12 11:38
1056F:推 pirates223: 吓 04/12 11:38
1057F:推 gilbertmac: 看第一颗大坏球 但之後都控的不错 04/12 11:38
1058F:→ SHOTN17: 差一点点 04/12 11:38
1059F:→ crayon1988: 先别吹 04/12 11:38
1060F:→ Getbackers: 地瓜 04/12 11:38
1061F:推 apollo62: 塔克何时才能发挥打击作用,加油啦。 04/12 11:38
1062F:→ zego41: 西格不能给他太甜的 04/12 11:38
1063F:推 whosu: 有喔 复活了吗 04/12 11:38
1064F:推 rock2345: 电动伸卡 04/12 11:39
1065F:→ SHOTN17: 好恶心的轨迹 电动伸卡 04/12 11:39
1066F:→ biosphere: 2B还行,不要托球变全垒打就好 04/12 11:39
1067F:推 wallaceboy: 补塔克真的太爽了 04/12 11:39
1068F:推 iyvx7c: 不当closer就复活了… 04/12 11:39
1069F:→ hi750403: 撑住阿 04/12 11:39
1070F:→ crayon1988: 满 04/12 11:39
1071F:推 nightcrow: 今天球很会跑 04/12 11:39
1072F:→ pirates223: 满 04/12 11:39
1073F:推 Ferrari360: 抖 04/12 11:39
1074F:推 Getbackers: 满 04/12 11:39
1075F:→ angel1314: 南哥稳住啊 04/12 11:39
1076F:推 benboy: 满 04/12 11:39
1077F:→ hi750403: 不要翻船阿 04/12 11:39
1078F:→ pirates223: 缠斗 04/12 11:39
1079F:推 daydreamer13: 西格不好处理 04/12 11:39
1080F:→ benboy: 黏 04/12 11:40
1081F:→ pirates223: BB 04/12 11:40
1082F:推 gilbertmac: 球速快耶 04/12 11:40
1083F:推 Eloye: 缠斗 04/12 11:40
1084F:→ crayon1988: BB 04/12 11:40
1085F:→ daydreamer13: 真能忍 04/12 11:40
1086F:→ Getbackers: bb 04/12 11:40
1087F:→ benboy: Bb 04/12 11:40
1088F:→ biosphere: 厉害 04/12 11:40
1089F:推 nigatsuki: 南哥加油啊 04/12 11:40
1090F:→ angel1314: 丸 04/12 11:40
1091F:推 matico: 没必要这麽闪吧 04/12 11:40
1092F:推 ycsheaven: 真会选 04/12 11:40
1093F:→ hi750403: 各位云霄飞车预备 04/12 11:40
1094F:推 woddy: 优点:球很会跑,缺点:球很会跑 04/12 11:40
1095F:推 mikilin23: 大谷下半局再见轰剧本要来了吗 04/12 11:40
1096F:→ iyvx7c: 熟悉的又来了 坐稳罗 04/12 11:40
1097F:推 jiaxie: 1OUT BB 04/12 11:40
1098F:推 Yjizz: TREINEN 今天球跑的蛮不错的 就看控的好不好~~ 04/12 11:40
1099F:推 lmf770410: 剧场要来罗 04/12 11:40
1100F:→ angel1314: 别开剧场 04/12 11:40
1101F:推 apollo62: 天能能不能? 04/12 11:40
1102F:推 socharge: 开抖 04/12 11:40
1103F:→ nigatsuki: 引诱球都没有引诱到 04/12 11:40
1104F:→ Yjizz: 笑死 刚打完字 BB 04/12 11:40
1105F:推 SHOTN17: 来个伸卡DP吧 04/12 11:40
1106F:推 d123xxx: 投很好 但打超黏 04/12 11:40
1107F:推 zxcghjko: 剧场要开了吗? 04/12 11:41
1108F:推 zego41: 电动伸卡 04/12 11:41
1109F:→ hi750403: 撑住阿哥 04/12 11:41
1110F:→ Yjizz: 这麽 拉高潮吗 04/12 11:41
1111F:推 Ferrari360: 哇咧 04/12 11:41
1112F:推 matico: 煮粥 04/12 11:41
1113F:→ crayon1988: E 04/12 11:41
1114F:→ angel1314: 粥 04/12 11:41
1115F:→ daydreamer13: 哇 04/12 11:41
1116F:推 inschool: 哎呀 04/12 11:41
1117F:→ moonzone: 紧张了 04/12 11:41
1118F:推 frankie30432: 雷了 剧场 04/12 11:41
1119F:→ nigatsuki: 呃 04/12 11:41
1120F:→ JWalk77: 忙西啊 04/12 11:41
1121F:→ SHOTN17: 眼镜你 = = 04/12 11:41
1122F:→ zxcghjko: 粥 04/12 11:41
1123F:推 leocheng: 太滑 04/12 11:41
1124F:→ zego41: 忙西 你 04/12 11:41
1125F:→ iyvx7c: ….忙西开搞 04/12 11:41
1126F:→ lmf770410: E 04/12 11:41
1127F:推 nigel711: 球太会跑没引诱力 04/12 11:41
1128F:推 one393143: 紧张罗 04/12 11:41
1129F:→ pirates223: … 04/12 11:41
1130F:→ biosphere: 雷,有机会DP的 04/12 11:41
1131F:→ benboy: 没接好 04/12 11:41
1132F:推 Eloye: 茫西你….. 04/12 11:41
1133F:→ hi750403: 干,,好可怕要完单了 04/12 11:41
1134F:推 Pinata23: XD 04/12 11:41
1135F:推 myeunji: 道奇第九局有毒 04/12 11:41
1136F:→ Tr3vyy: 抓稳了 04/12 11:41
1137F:推 Siika: 剧场 04/12 11:41
1138F:推 cian0923: 崔南剧场 04/12 11:41
1139F:推 peace305: 很熟悉.. 04/12 11:41
1140F:→ angel1314: 南哥剧场开了 04/12 11:41
1141F:推 jerrysaikou: 一棒追平? 04/12 11:41
1142F:推 bboykay: 糟糕,忙西的气用完了 04/12 11:41
1143F:→ iyvx7c: 不会连两天都… 04/12 11:41
1144F:推 yesno41: 熟悉的道奇又来了 04/12 11:41
1145F:→ jiaxie: 盲西煮粥... 04/12 11:41
1146F:推 Montrealais: 刺激一下收视率 04/12 11:41
1147F:推 hpfan: 怕 04/12 11:41
1148F:推 rainbowcrash: 要出4了 04/12 11:41
1149F:推 sharkmew: 粥 04/12 11:42
1150F:→ pirates223: 开剧场 04/12 11:42
1151F:推 Acixxl: 眼镜歪了 三分来一枚 04/12 11:42
1152F:推 pollux945: 一棒就能追平了 04/12 11:42
1153F:→ myeunji: 谁来投都一样 04/12 11:42
1154F:推 kohebe: 茫了 04/12 11:42
1155F:→ crayon1988: 还要天天V热身 惨 04/12 11:42
1156F:→ angel1314: 天天V 04/12 11:42
1157F:推 Getbackers: 天天V 04/12 11:42
1158F:→ zxcghjko: 天天V 04/12 11:42
1159F:→ biosphere: 天天V又热 04/12 11:42
1160F:→ leocheng: 制造收视率来了 04/12 11:42
1161F:推 jimmily: 结果还是要天天V热身 04/12 11:42
1162F:推 Axy8: 太急了 04/12 11:42
1163F:→ pirates223: 天天V 04/12 11:42
1164F:推 apollo62: BS味道浓 04/12 11:42
1165F:→ hi750403: 靠好好关门阿 04/12 11:42
1166F:推 liuon: 又要剧场了 04/12 11:42
1167F:→ benboy: V在热身 04/12 11:42
1168F:→ SHOTN17: 拆弹专家热身中 04/12 11:42
1169F:推 kiv9137: 道奇剧场天天开演 04/12 11:42
1170F:→ Tr3vyy: 天天V 04/12 11:42
1171F:推 Franc1224: 道奇的第九局就是特别好看 04/12 11:42
1172F:推 whosu: … 04/12 11:42
1173F:→ rainbowcrash: 又要拆弹了.. 04/12 11:42
1174F:→ Ferrari360: 不是吧….. 04/12 11:42
1175F:推 socharge: 老贼王 老人对决 04/12 11:42
1176F:→ xin114242: 要当终结者 没那麽容易 04/12 11:43
1177F:推 rock2345: 电动滑球 04/12 11:43
1178F:→ biosphere: 老人对决 04/12 11:43
1179F:→ pirates223: 来个DP下庄吧 04/12 11:43
1180F:→ benboy: 滑球太会跑 04/12 11:43
1181F:推 s15522760406: 南哥:今年是棒球之神不爱我了吗 04/12 11:43
1182F:推 force5566: 收视率来了 04/12 11:43
1183F:推 justinxue: 真的很滑 04/12 11:43
1184F:推 bboykay: 这两天南天帝的考试都胆战心惊 04/12 11:43
1185F:推 jasonpig: 每天开剧场我胃好痛 04/12 11:43
1186F:推 daydreamer13: 水 04/12 11:43
1187F:→ crayon1988: K 04/12 11:43
1188F:推 moonzone: 有喔 再一个 04/12 11:43
1189F:→ angel1314: Kkk 04/12 11:43
1190F:推 zego41: 没挑战 笑死 04/12 11:43
1191F:→ Ferrari360: 笑死 04/12 11:43
1192F:→ biosphere: KIKE姿势要这麽妖娇就是了 04/12 11:43
1193F:推 gilbertmac: 哈哈 没挑战 04/12 11:43
1194F:推 u9596g12: 没得挑战罗 04/12 11:43
1195F:推 Getbackers: 没得挑战 04/12 11:43
1196F:推 jimmily: 没得挑战罗XD 04/12 11:43
1197F:→ pirates223: kkkkk 04/12 11:43
1198F:→ crayon1988: 没挑战了喔 04/12 11:43
1199F:→ SHOTN17: 想拍 但…… 04/12 11:43
1200F:推 pollux945: 贼王不敌天能 04/12 11:43
1201F:→ JWalk77: 好啊 04/12 11:43
1202F:→ inschool: 真不能乱用 04/12 11:43
1203F:→ benboy: 没挑战kkkkkkk 04/12 11:43
1204F:推 luca714: 再乱用阿 04/12 11:43
1205F:→ kiv9137: 没挑战罗 04/12 11:43
1206F:推 woddy: 巨大的三振 04/12 11:43
1207F:推 lmf770410: 没得拍头 04/12 11:43
1208F:推 wallaceboy: 我道奇就是天天剧场 但是还是会赢啦 04/12 11:43
1209F:推 nigatsuki: 但其实应该也是有擦到匡 04/12 11:43
1210F:推 fxm20334: 有压线 还好啦 04/12 11:43
1211F:→ iyvx7c: 不能挑战XDDDD 04/12 11:43
1212F:推 regular: 哈哈没挑战罗 04/12 11:43
1213F:→ u9596g12: 这挑战会是坏球 笑鼠 04/12 11:43
1214F:→ angel1314: 巨大的k 04/12 11:44
1215F:→ rainbowcrash: 可怜哪.. 04/12 11:44
1216F:推 disasterD: XDDDDDDDDDDDDDDDDDDDDDDDDDD 04/12 11:44
1217F:推 zxcghjko: 没挑战罗 04/12 11:44
1218F:→ Tr3vyy: 没有挑战罗 04/12 11:44
1219F:→ uranuss: 没得拍头了 04/12 11:44
1220F:推 nightcrow: 没挑战 尴尬 04/12 11:44
1221F:推 jiaxie: 香振2OUT,没得挑战,挑战也是K 04/12 11:44
1222F:→ SHOTN17: 这挑战也失败吧 04/12 11:44
1223F:→ woddy: 要换投?? 04/12 11:44
1224F:推 hi750403: 干好可怕 04/12 11:44
1225F:推 Siika: 笑死 前面乱用啊 04/12 11:44
1226F:推 bingxyz: 这好球吧 04/12 11:44
1227F:→ bboykay: 哎哟,要果断换吗 04/12 11:44
1228F:推 FukatsuEri: 这时候没有挑战太伤了.... 04/12 11:44
1229F:推 Romulus: 有挑战还不是浪费第三次而已( 04/12 11:44
1230F:→ pirates223: 前面乱用XDDD 04/12 11:44
1231F:→ JWalk77: 换掉了 04/12 11:44
1232F:→ benboy: V要上? 04/12 11:44
1233F:推 socharge: 应该有空隙喔 04/12 11:44
1234F:推 frankie30432: 南哥可惜了 04/12 11:44
1235F:→ gilbertmac: 今天伸卡有96 97 蛮猛的 04/12 11:44
1236F:→ u9596g12: 天天V 04/12 11:44
1237F:→ Getbackers: 关门失败 04/12 11:44
1238F:→ zego41: 天天V今天还要加班 04/12 11:44
1239F:→ lmf770410: 真保守 04/12 11:44
1240F:推 duke0529: 这搞不好也是那种削到一点边的好球 04/12 11:44
1241F:→ Tr3vyy: 让天天V上来玩一下 04/12 11:44
1242F:推 joanna1212: 条子总教会气系 04/12 11:44
1243F:→ angel1314: V也太操 04/12 11:44
1244F:推 heaventrain: 天天V救我 04/12 11:44
1245F:→ wl2340167: 要换? 稳成这样 04/12 11:44
1246F:→ iyvx7c: 这挑战被K就算了 干的是不能挑战吧 04/12 11:44
1247F:→ biosphere: 不偷,让天天V关门 04/12 11:44
1248F:推 ChiroQQ: 换天天V来杀左打 04/12 11:44
1249F:→ daydreamer13: 可以啦 南哥还行 对面蛮有耐心的 04/12 11:44
1250F:→ kiv9137: 给天天V一个SV? 04/12 11:44
1251F:推 vickyboy: 天天V这时候还要上喔 04/12 11:44
1252F:→ fxm20334: 可以撑过去啦 干嘛浪费投手 04/12 11:44
1253F:→ SHOTN17: 可惜了 南哥今天投得不错吧 没失误的话 04/12 11:44
1254F:推 Montrealais: 没事乱挑战结果现在没挑战用XDD 04/12 11:44
1255F:推 Eloye: 天天V:好累 04/12 11:44
1256F:推 mikilin23: 游骑兵DH2个打者各自领2K达成高画质 04/12 11:44
1257F:推 peace305: 太血汗了 04/12 11:44
1258F:推 lafeelbarth: 一定要天天 04/12 11:44
1259F:推 LukeSkywaker: 这样还要V喔太惨了吧 04/12 11:44
1260F:→ zxcghjko: 南哥可惜 没失误就结束了 04/12 11:44
1261F:推 rock2345: 南哥还行吧 04/12 11:44
1262F:推 qaz2361: 我们需要吼一下 04/12 11:44
1263F:→ Mumidazole: 天天V上班 04/12 11:44
1264F:→ Yjizz: 尴尬 04/12 11:44
1265F:→ inschool: 守住的话忙西该请吃饭 04/12 11:44
1266F:→ jasonpig: 21球再凹可能会出事 04/12 11:44
1267F:→ frankie30432: 没失误就下班了 投的OK 04/12 11:45
1268F:推 nigatsuki: 终於不凹了吗萝卜 04/12 11:45
1269F:推 evaliao: 还是要上V 果然天天系的XD 04/12 11:45
1270F:推 Sho17: 天天V还是来了 04/12 11:45
1271F:推 cool8418: 其实投的不差 04/12 11:45
1272F:推 hwer7850: 感觉南哥能 04/12 11:45
1273F:→ rainbowcrash: 滑球骗不太到了,果断换人 04/12 11:45
1274F:→ u9596g12: 挑战两颗差2寸以上的 结果真的关键时刻没得用 奇葩 04/12 11:45
1275F:→ pirates223: 天天V很操 04/12 11:45
1276F:→ moonzone: 差一个而已 还要用上V老大喔? 04/12 11:45
1277F:→ jiaxie: 最後一打席左右病萝卜 04/12 11:45
1278F:→ bboykay: 南天帝另外一个天也要上了 04/12 11:45
1279F:→ joanna1212: 觉得崔男还可以 04/12 11:45
1280F:推 KWBilly: 还没结束?想说稳了就转台了 04/12 11:45
1281F:→ iyvx7c: 萝卜:天天V救我 04/12 11:45
1282F:推 Yuko300: 神调度?上一年被喷爆 04/12 11:45
1283F:推 amos30627: 为啥换投 崔男感觉还可以啊 04/12 11:45
1284F:→ biosphere: 明天朗希自己完投吧,没投手了 04/12 11:45
1285F:→ zego41: 南哥其实球不错但去年砸锅太多次 现在都不太敢塞 04/12 11:45
1286F:→ Romulus: 左投对左打啊 04/12 11:45
1287F:推 yashiro68: 南哥赞 04/12 11:45
1288F:→ pirates223: 扫球大多被选掉呀 04/12 11:45
1289F:推 apollo62: 都结果论,但我觉得超过20球了,换没错。 04/12 11:46
1290F:推 liao0607: 南哥:我要创造收视率啊 04/12 11:46
1291F:→ rainbowcrash: 明天就司机天能小喇叭吧,牛棚人够的 04/12 11:46
1292F:推 Ferrari360: 寿星 04/12 11:46
1293F:推 Getbackers: 才30岁? 04/12 11:46
1294F:→ biosphere: 天天V今天生日 04/12 11:46
1295F:推 hi750403: 阿v加油阿 04/12 11:46
1296F:→ Yuko300: 原来是寿星 04/12 11:46
1297F:→ pirates223: 30岁生日 04/12 11:46
1298F:→ jiaxie: 你换投,我换打 04/12 11:46
1299F:推 walkaround: 生日上场救援 04/12 11:46
1300F:→ hi750403: 乾杀人猪心 04/12 11:46
1301F:推 forgetwen: 天天生日快乐 04/12 11:46
1302F:推 yechu2003: 靠北,他才30岁? 04/12 11:46
1303F:推 daydreamer13: 正面来喔 赞 04/12 11:46
1304F:推 hpfan: 寿星加油 04/12 11:46
1305F:→ pirates223: 简森代打 04/12 11:46
1306F:推 force5566: 还是要天天V 04/12 11:46
1307F:→ Ferrari360: 对决 04/12 11:46
1308F:→ Eloye: 萝卜:郎西你明天耗子尾汁 学户乡投150球吧 04/12 11:47
1309F:推 fxm20334: 条子後段打线很好解决 可惜啊 04/12 11:47
1310F:→ Getbackers: 这颗危险 04/12 11:47
1311F:推 mikilin23: 速球只剩89 04/12 11:47
1312F:→ jiaxie: 只投一人次有机会拿救援点 04/12 11:47
1313F:推 housny: 怒吼V来了 04/12 11:47
1314F:推 u9596g12: 天天V球速掉下来了 04/12 11:47
1315F:推 zego41: 影帝这个不挑战 04/12 11:47
1316F:推 evaliao: 真的原来才30而已XDD 04/12 11:47
1317F:→ forgetwen: 89 mile? 04/12 11:47
1318F:推 gilbertmac: 球速慢耶 04/12 11:47
1319F:推 SHOTN17: 90 04/12 11:47
1320F:→ benboy: 这球可以挑战 04/12 11:47
1321F:推 angel1314: 抖 04/12 11:47
1322F:→ hi750403: 好可怕 04/12 11:47
1323F:→ KWBilly: 邓下了,不到一局 04/12 11:47
1324F:推 Yjizz: HAPPY B-DAY Alex Vesia 04/12 11:47
1325F:→ mikilin23: 危 04/12 11:47
1326F:→ angel1314: 丸子 04/12 11:47
1327F:推 don323: 道奇连终结者都要竞争。萝卜有料 04/12 11:47
1328F:推 bboykay: 不要堆到满垒欸… 04/12 11:47
1329F:→ Ferrari360: 抖了 04/12 11:47
1330F:→ crayon1988: 1s3b 04/12 11:47
1331F:→ daydreamer13: 呃…有点抖 04/12 11:48
1332F:→ LuCkySAiGTo: 挑战不用一用 04/12 11:48
1333F:→ iyvx7c: 怎麽感觉会BS…. 04/12 11:48
1334F:推 ChiroQQ: 丸子 04/12 11:48
1335F:推 steven83514: 紧张喽 04/12 11:48
1336F:→ JWalk77: 没想到邓下了道奇还没结束 04/12 11:48
1337F:→ hi750403: 为什麽练两天这样 04/12 11:48
1338F:→ u9596g12: 先猜天天V要满垒才会头 04/12 11:48
1339F:→ inschool: 满 04/12 11:48
1340F:→ gilbertmac: 热不够 球速超慢 04/12 11:48
1341F:推 hwer7850: 嘎蛋萝卜 04/12 11:48
1342F:→ galleon2000: 不会翻车吧 04/12 11:48
1343F:推 blitz1991: 换一个更烂的干嘛 = = 04/12 11:48
1344F:→ benboy: 满 04/12 11:48
1345F:推 nigatsuki: 最後最後QQ 04/12 11:48
1346F:推 SULAjardin: 危 04/12 11:48
1347F:→ fxm20334: 抓东冈合理 04/12 11:48
1348F:→ hi750403: 阿阿 04/12 11:48
1349F:推 sunwit: 第2球好球不挑战 04/12 11:48
1350F:→ pirates223: 未看先猜堆满垒再三振下班 04/12 11:48
1351F:→ KWBilly: 好刺激 04/12 11:48
1352F:→ jiaxie: 第2球影帝没挑战,可惜 04/12 11:48
1353F:→ daydreamer13: 水啦 04/12 11:48
1354F:→ crayon1988: K 生日快乐 04/12 11:48
1355F:→ inschool: 88888888888888888 04/12 11:48
1356F:推 moonzone: 收工 V 04/12 11:48
1357F:→ Ferrari360: k 04/12 11:48
1358F:→ u9596g12: KKKKK 04/12 11:48
1359F:→ JWalk77: KKKKKKKKKKK 04/12 11:48
1360F:→ zego41: 拆弹成功 04/12 11:48
1361F:推 luca714: 吼起来 04/12 11:48
1362F:推 biosphere: 怒吼!!! 04/12 11:48
1363F:推 darren2586: 吼了 04/12 11:48
1364F:推 zxcghjko: GG 04/12 11:48
1365F:推 jogsweet: 水啦 04/12 11:48
1366F:→ hi750403: 水辣生日快乐 04/12 11:48
1367F:→ daydreamer13: 赞赞赞 对面忍不住了 04/12 11:48
1368F:推 windphilip: 生日快乐XD 04/12 11:48
1369F:→ angel1314: Kkk kkkkkkkk 04/12 11:48
1370F:→ SHOTN17: 经典怒吼!!! 04/12 11:48
1371F:推 kiv9137: K 04/12 11:48
1372F:→ heaventrain: 生日快乐 04/12 11:48
1373F:推 jimmily: 怒吼!!!!!!!!!!!!!!!!!!!! 04/12 11:48
1374F:推 asd45654: 生日快乐 04/12 11:48
1375F:推 woddy: 再见三振,生日快乐 04/12 11:48
1376F:→ nigatsuki: 收工VVVVVVVVVVV 04/12 11:48
1377F:推 KSUGOD: 超激动 04/12 11:48
1378F:→ iyvx7c: 777777 11胜了 04/12 11:48
1379F:推 Getbackers: 怒吼 04/12 11:48
1380F:→ pirates223: kkkkkk 天天V生日快乐 04/12 11:48
1381F:→ u9596g12: 球速超慢 但还是三振 XD 04/12 11:48
1382F:→ jiaxie: K 3OUT 04/12 11:48
1383F:→ JWalk77: 吼起来 04/12 11:48
1384F:→ benboy: 怒吼啦在见kkkkkk 04/12 11:48
1385F:推 bala73: KKKKKKKKKKKKKKKKKKKKKKKKKKKK 04/12 11:49
1386F:推 lafeelbarth: 一定要怒吼 04/12 11:49
1387F:推 yangtsur: 天天V 04/12 11:49
1388F:→ fxm20334: 条子就爱虾辉阿XD 04/12 11:49
1389F:推 nightcrow: 吼起来! 04/12 11:49
1390F:→ lsj049: 天天V 04/12 11:49
1391F:推 kevinhong314: 生日快乐 04/12 11:49
1392F:推 lmf770410: 激动哥 04/12 11:49
1393F:→ Tr3vyy: GG 04/12 11:49
1394F:推 wl2340167: 吼起来 04/12 11:49
1395F:推 LukeSkywaker: 怒吼!!!! 04/12 11:49
1396F:→ ChiroQQ: 感觉很慢 还是骗到打者 04/12 11:49
1397F:推 joanna1212: 怒吼起来!!!!!!! 04/12 11:49
1398F:→ inschool: V哥就是强 04/12 11:49
1399F:推 ZEONEX: 天天V!!!!!!再见三振 04/12 11:49
1400F:推 pp789456123: 恭喜恭喜!天天V生日快乐!! 04/12 11:49
1401F:→ grade1kimo: 天天v生快 04/12 11:49
1402F:推 pca0306: 天天V有料 04/12 11:49
1403F:→ daydreamer13: 生日快乐~! 04/12 11:49
1404F:推 k1222: 没热完也要上班 辛苦了 04/12 11:49
1405F:推 teata: 生日快乐 04/12 11:49
1406F:推 evaliao: 果然来怒吼K的XDD 04/12 11:49
1407F:推 chienen: 胜利V老大怒吼! 04/12 11:49
1408F:→ steven83514: 怒吼 04/12 11:49
1409F:→ bboykay: 生日三振,收工 04/12 11:49
1410F:推 fash5896: KKKKK 04/12 11:49
1411F:→ blitz1991: 好险下庄ㄏ 04/12 11:49
1412F:→ Mumidazole: KKK 04/12 11:49
1413F:推 jasonpig: 收工下班 04/12 11:49
1414F:推 Bparis: 生日总要上来拿个sv 04/12 11:49
1415F:推 Romulus: 怒吼!!!! 04/12 11:49
1416F:推 forgetwen: 生日礼物 04/12 11:49
1417F:推 hpfan: 天天V! 04/12 11:49
1418F:→ SHOTN17: 原来萝卜是要让寿星吼一下 = = 04/12 11:49
1419F:推 Montrealais: 专业拆弹 04/12 11:49
1420F:推 Eloye: 怒吼天尊! 04/12 11:49
1421F:推 shuyuhuang: 热血天天V 生日快乐!!! 04/12 11:49
1422F:→ hi750403: 最好的礼物 04/12 11:49
1423F:推 TonyGonsolin: 天天V吼起来!! 04/12 11:49
1424F:→ angel1314: 天天V拆弹专家 04/12 11:49
1425F:→ jiaxie: LAD WIN! SHEEHAN QS WIN! HERNANDEZ HR WIN!OHTANI HR 2K 04/12 11:49
1426F:→ kiv9137: 给天天V的生日礼物是一个Save吗萝卜 04/12 11:49
1427F:→ pirates223: 吼起来 04/12 11:49
1428F:→ eellee: 天天V又扛了一把 04/12 11:49
1429F:推 po5454: 啊啊啊啊啊 04/12 11:49
1430F:→ gilbertmac: 速球降到90 还控不进去 还好打者更烂 04/12 11:49
1431F:→ lanhot: 果然是拆弹専家 04/12 11:49
1432F:→ ailio: V今年状况很好 04/12 11:49
1433F:→ iyvx7c: 萝卜暖男 生日送SV 04/12 11:49
1434F:→ u9596g12: 生日礼物SV 04/12 11:50
1435F:→ jiaxie: Vesia只抓一人出局爽拿救援点 04/12 11:50
1436F:推 apollo62: 宇宙道奇队,真可怕 04/12 11:50
1437F:→ SHOTN17: 明天先发好看 SSK对决地瓜!! 04/12 11:50
1438F:推 sept9048: 难怪在那边天天V 真的好强 04/12 11:50
1439F:推 max5209: 刺激XD 04/12 11:51
1440F:推 shinchen: 天天V是拿球速来换出手角度吗 出手角度今年改超高 04/12 11:51
1441F:推 wallaceboy: 今年补塔克跟迪亚兹真的稳 04/12 11:52
1442F:推 zego41: V去年可以投9495欸 今年降太多 04/12 11:52
1443F:推 SHOTN17: 明天捕手应该是拉辛 看看他手感有没有保持 04/12 11:52
1444F:推 gilbertmac: 今天应该是热不够 前几场没这麽慢吧 04/12 11:53
1445F:→ asd45654: v就是属於那种怪投手阿 拆弹好用 04/12 11:53
1446F:推 SHOTN17: 他前一场就偏慢了 90左右 04/12 11:54
1447F:推 crayon1988: 今年均91.3 去年均92.7 04/12 11:54
1448F:推 lity3426: 生日快乐 04/12 11:57
1449F:→ jack86326: https://www.youtube.com/watch?v=XiLHy0k8RY8 04/12 14:26
1450F:→ jack86326: https://www.youtube.com/watch?v=dJI5dahhpOk 04/12 14:27
1451F:→ jack86326: 爱尔达 吴昇府/耿伯轩 纬来 李秉昇/林柏佑 04/12 14:27
1452F:→ jack86326: https://www.youtube.com/watch?v=2OCYQZ_YvDs 04/12 14:28
1453F:→ jack86326: 华视 钱定远/郑又嘉 04/12 14:28
1454F:推 jack86326: 调停周=日前Trump宣布美国伊朗停火两周,梁兵真有其人 04/12 14:31
1455F:→ jack86326: 梁兵真有此人,为避免被出征请至维基百科搜寻 04/12 14:32
1456F:推 yasan1029: 777 04/12 22:14
1457F:→ jack86326: 补最後一楼 https://youtu.be/jm9BiWI3btk 04/14 22:55







like.gif 您可能会有兴趣的文章
icon.png[问题/行为] 猫晚上进房间会不会有憋尿问题
icon.pngRe: [闲聊] 选了错误的女孩成为魔法少女 XDDDDDDDDDD
icon.png[正妹] 瑞典 一张
icon.png[心得] EMS高领长版毛衣.墨小楼MC1002
icon.png[分享] 丹龙隔热纸GE55+33+22
icon.png[问题] 清洗洗衣机
icon.png[寻物] 窗台下的空间
icon.png[闲聊] 双极の女神1 木魔爵
icon.png[售车] 新竹 1997 march 1297cc 白色 四门
icon.png[讨论] 能从照片感受到摄影者心情吗
icon.png[狂贺] 贺贺贺贺 贺!岛村卯月!总选举NO.1
icon.png[难过] 羡慕白皮肤的女生
icon.png阅读文章
icon.png[黑特]
icon.png[问题] SBK S1安装於安全帽位置
icon.png[分享] 旧woo100绝版开箱!!
icon.pngRe: [无言] 关於小包卫生纸
icon.png[开箱] E5-2683V3 RX480Strix 快睿C1 简单测试
icon.png[心得] 苍の海贼龙 地狱 执行者16PT
icon.png[售车] 1999年Virage iO 1.8EXi
icon.png[心得] 挑战33 LV10 狮子座pt solo
icon.png[闲聊] 手把手教你不被桶之新手主购教学
icon.png[分享] Civic Type R 量产版官方照无预警流出
icon.png[售车] Golf 4 2.0 银色 自排
icon.png[出售] Graco提篮汽座(有底座)2000元诚可议
icon.png[问题] 请问补牙材质掉了还能再补吗?(台中半年内
icon.png[问题] 44th 单曲 生写竟然都给重复的啊啊!
icon.png[心得] 华南红卡/icash 核卡
icon.png[问题] 拔牙矫正这样正常吗
icon.png[赠送] 老莫高业 初业 102年版
icon.png[情报] 三大行动支付 本季掀战火
icon.png[宝宝] 博客来Amos水蜡笔5/1特价五折
icon.pngRe: [心得] 新鲜人一些面试分享
icon.png[心得] 苍の海贼龙 地狱 麒麟25PT
icon.pngRe: [闲聊] (君の名は。雷慎入) 君名二创漫画翻译
icon.pngRe: [闲聊] OGN中场影片:失踪人口局 (英文字幕)
icon.png[问题] 台湾大哥大4G讯号差
icon.png[出售] [全国]全新千寻侘草LED灯, 水草

请输入看板名称,例如:Tech_Job站内搜寻

TOP